GFSGL_850_dewp_003.txt.gz
Dewpoint
0 -1 -1 -1 -2 -3 -3 -3 -2 -2 -2 -2 -4 -3 -3 -3 -3 -4 -3 -4 -3 -3 -4 -4 -5 -5 -6 -8 -9 -9 -9 -9 -9 -10 -10 -10 -10 -10 -9 -9 -7 -7 -7
-1 -2 -3 -3 -3 -4 -3 -2 -3 -2 -2 -3 -3 -3 -4 -3 -4 -4 -4 -5 -5 -5 -5 -5 -6 -6 -7 -8 -10 -10 -11 -11 -11 -11 -11 -11 -10 -10 -10 -9 -8 -8 -8
-1 -2 -3 -4 -4 -3 -3 -4 -4 -4 -4 -4 -5 -5 -5 -6 -7 -8 -8 -7 -7 -7 -8 -8 -8 -9 -10 -10 -10 -10 -10 -11 -11 -11 -11 -12 -11 -11 -11 -10 -10 -9 -9
-1 -3 -4 -4 -4 -5 -5 -6 -6 -7 -8 -10 -11 -11 -11 -11 -11 -11 -10 -10 -11 -12 -11 -10 -10 -10 -10 -9 -9 -10 -10 -10 -11 -11 -12 -12 -12 -12 -12 -11 -11 -11 -10
-1 -3 -4 -6 -6 -7 -8 -8 -9 -10 -11 -12 -12 -12 -11 -11 -11 -11 -10 -9 -10 -10 -11 -11 -11 -9 -9 -9 -10 -10 -10 -10 -11 -12 -12 -12 -12 -12 -12 -11 -11 -10 -10
-2 -4 -5 -6 -6 -7 -9 -10 -12 -12 -12 -12 -11 -11 -11 -11 -11 -11 -11 -11 -11 -11 -11 -11 -11 -11 -9 -9 -10 -11 -11 -10 -10 -10 -10 -10 -10 -10 -10 -9 -9 -8 -8
-4 -5 -6 -6 -5 -8 -9 -12 -12 -13 -12 -11 -11 -11 -10 -10 -9 -10 -11 -12 -10 -11 -11 -11 -10 -11 -11 -11 -11 -10 -9 -9 -9 -9 -9 -9 -9 -9 -8 -8 -7 -7 -8
-6 -6 -7 -5 -5 -7 -9 -11 -12 -12 -11 -11 -11 -10 -10 -10 -8 -9 -10 -11 -11 -11 -11 -10 -10 -10 -10 -10 -9 -9 -10 -9 -9 -9 -9 -9 -9 -9 -9 -8 -8 -7 -7
-6 -5 -4 -5 -4 -7 -10 -11 -12 -11 -11 -11 -10 -9 -8 -9 -10 -10 -12 -11 -11 -11 -11 -10 -10 -10 -11 -11 -11 -10 -10 -10 -10 -9 -10 -11 -11 -11 -10 -8 -8 -8 -8
-7 -8 -7 -6 -5 -6 -9 -12 -11 -12 -11 -9 -8 -8 -9 -9 -10 -11 -11 -12 -12 -11 -11 -11 -11 -11 -11 -11 -11 -11 -10 -9 -9 -10 -9 -9 -8 -9 -9 -11 -11 -9 -10
-8 -8 -6 -6 -6 -8 -12 -12 -12 -11 -9 -7 -9 -10 -9 -9 -10 -11 -12 -12 -12 -12 -11 -11 -11 -10 -10 -10 -10 -11 -11 -11 -11 -11 -10 -10 -10 -9 -9 -9 -9 -9 -10
-6 -6 -7 -7 -9 -12 -11 -12 -11 -10 -9 -8 -9 -11 -10 -10 -10 -11 -12 -13 -13 -13 -12 -11 -11 -11 -12 -12 -12 -12 -12 -12 -11 -11 -10 -10 -9 -9 -9 -9 -8 -8 -8
-4 -5 -7 -9 -11 -12 -11 -11 -11 -10 -8 -9 -10 -11 -11 -11 -11 -11 -13 -13 -13 -13 -12 -12 -12 -12 -12 -12 -12 -13 -12 -11 -11 -11 -10 -10 -9 -9 -9 -9 -8 -8 -8
-6 -8 -9 -10 -10 -10 -11 -11 -11 -9 -9 -10 -11 -12 -12 -12 -13 -12 -13 -13 -13 -13 -13 -13 -13 -13 -13 -12 -12 -12 -12 -12 -11 -11 -11 -10 -10 -9 -8 -8 -8 -8 -8
-7 -9 -9 -9 -9 -9 -10 -10 -10 -9 -10 -12 -12 -12 -12 -13 -13 -14 -14 -14 -14 -13 -13 -13 -13 -13 -13 -12 -12 -12 -12 -12 -12 -11 -11 -10 -10 -9 -8 -8 -8 -8 -8
-7 -9 -8 -7 -8 -8 -9 -9 -9 -10 -11 -12 -12 -13 -15 -14 -15 -15 -14 -14 -14 -13 -13 -14 -14 -14 -14 -13 -13 -13 -13 -13 -12 -12 -11 -11 -10 -10 -9 -8 -8 -8 -7
-11 -8 -7 -8 -8 -8 -8 -8 -8 -9 -10 -10 -11 -13 -15 -15 -15 -15 -15 -14 -14 -14 -14 -14 -14 -14 -14 -13 -13 -13 -13 -13 -13 -13 -12 -11 -11 -10 -10 -9 -8 -8 -7
-9 -8 -7 -8 -8 -8 -8 -9 -9 -9 -10 -10 -11 -12 -13 -14 -15 -15 -15 -14 -14 -14 -15 -15 -15 -15 -14 -14 -14 -14 -13 -13 -13 -13 -12 -12 -11 -11 -10 -10 -9 -8 -8
-8 -8 -8 -8 -8 -9 -9 -9 -10 -10 -10 -10 -11 -12 -13 -14 -14 -14 -15 -15 -15 -15 -16 -15 -15 -15 -15 -15 -15 -14 -14 -14 -14 -13 -13 -12 -12 -11 -11 -10 -10 -9 -9
-9 -8 -9 -8 -8 -9 -9 -9 -10 -10 -10 -11 -11 -12 -13 -14 -14 -14 -15 -16 -16 -16 -16 -16 -16 -16 -16 -15 -15 -15 -14 -14 -14 -14 -13 -13 -12 -12 -12 -11 -11 -10 -10
-8 -8 -8 -9 -9 -9 -9 -10 -10 -10 -10 -11 -11 -12 -15 -14 -14 -14 -15 -15 -16 -16 -16 -16 -16 -16 -16 -16 -16 -15 -15 -15 -14 -14 -14 -13 -13 -12 -12 -12 -11 -11 -11
-9 -8 -9 -9 -9 -9 -10 -10 -10 -10 -11 -11 -11 -12 -13 -14 -14 -14 -15 -15 -18 -26 -29 -22 -17 -19 -22 -19 -18 -17 -16 -16 -16 -15 -15 -14 -13 -13 -12 -12 -12 -12 -12
-9 -9 -9 -9 -9 -10 -10 -10 -10 -10 -11 -11 -12 -12 -12 -13 -14 -14 -15 -15 -16 -23 -34 -33 -31 -31 -30 -30 -29 -29 -29 -30 -29 -27 -18 -15 -14 -14 -13 -12 -12 -13 -12
-9 -9 -9 -9 -9 -10 -10 -10 -10 -10 -11 -11 -11 -12 -12 -13 -14 -14 -15 -15 -15 -16 -31 -38 -34 -32 -32 -32 -31 -31 -31 -31 -31 -31 -26 -15 -15 -15 -14 -13 -13 -13 -13
-9 -9 -9 -10 -10 -10 -10 -10 -10 -10 -10 -11 -11 -12 -12 -13 -13 -14 -14 -15 -15 -17 -23 -27 -32 -35 -33 -32 -31 -31 -31 -32 -32 -32 -32 -20 -25 -23 -16 -14 -18 -13 -14
-9 -9 -9 -9 -10 -10 -10 -10 -10 -10 -10 -11 -11 -12 -12 -13 -13 -14 -14 -15 -18 -26 -28 -34 -34 -33 -32 -31 -31 -30 -30 -30 -31 -32 -32 -32 -32 -31 -31 -20 -26 -15 -15

GFSGL_850_dewp_006.txt.gz
Dewpoint
1 1 -1 -2 -2 -2 -3 -3 -2 -3 -7 -6 -6 -6 -5 -5 -5 -6 -6 -7 -6 -7 -6 -5 -4 -4 -4 -4 -4 -5 -7 -8 -8 -8 -9 -9 -10 -9 -7 -6 -4 -5 -6
1 0 -1 -3 -3 -3 -3 -3 -4 -4 -4 -4 -5 -6 -7 -8 -8 -8 -8 -8 -8 -6 -5 -6 -7 -7 -8 -8 -7 -7 -8 -9 -9 -10 -9 -10 -11 -11 -11 -10 -9 -7 -7
0 -1 -2 -3 -4 -4 -5 -6 -5 -6 -7 -8 -9 -10 -11 -11 -11 -11 -11 -10 -9 -9 -11 -12 -9 -9 -9 -9 -11 -10 -9 -9 -9 -9 -9 -10 -11 -11 -12 -12 -11 -10 -9
-1 -2 -2 -2 -4 -6 -6 -7 -7 -8 -10 -11 -12 -12 -11 -11 -11 -10 -11 -11 -11 -12 -14 -16 -12 -11 -9 -8 -7 -8 -9 -9 -9 -9 -10 -11 -11 -11 -12 -13 -13 -12 -12
-1 -1 -4 -4 -5 -6 -6 -7 -8 -10 -12 -12 -12 -11 -11 -11 -10 -11 -11 -10 -10 -11 -12 -13 -14 -12 -11 -11 -10 -8 -8 -10 -12 -13 -12 -11 -10 -10 -10 -8 -8 -8 -8
-2 -3 -3 -2 -5 -5 -5 -7 -8 -11 -11 -12 -11 -11 -11 -10 -9 -10 -9 -9 -9 -10 -11 -13 -13 -11 -11 -10 -9 -9 -10 -11 -12 -11 -11 -10 -10 -10 -9 -9 -8 -8 -8
-6 -5 -4 -2 -3 -4 -5 -6 -8 -10 -12 -12 -11 -10 -10 -9 -9 -9 -9 -9 -11 -12 -13 -12 -11 -10 -10 -9 -9 -9 -9 -9 -9 -9 -9 -10 -11 -12 -11 -10 -10 -9 -8
-9 -7 -3 -3 -5 -4 -5 -5 -6 -10 -12 -11 -10 -9 -9 -9 -9 -11 -11 -11 -12 -14 -13 -13 -13 -11 -10 -10 -9 -10 -10 -11 -10 -10 -10 -11 -9 -9 -10 -10 -9 -9 -9
-10 -6 -4 -5 -5 -7 -5 -5 -8 -11 -11 -10 -9 -9 -9 -10 -11 -10 -10 -11 -11 -14 -14 -12 -11 -12 -13 -12 -11 -12 -13 -13 -13 -12 -11 -10 -9 -10 -10 -10 -10 -10 -9
-6 -5 -4 -5 -5 -5 -5 -7 -10 -11 -10 -9 -10 -10 -11 -12 -9 -9 -10 -11 -12 -13 -13 -13 -14 -12 -11 -11 -10 -10 -10 -10 -10 -11 -10 -11 -11 -11 -9 -8 -9 -9 -11
-4 -4 -4 -4 -6 -6 -7 -11 -11 -11 -11 -10 -9 -10 -12 -10 -9 -10 -11 -11 -12 -13 -13 -13 -12 -11 -11 -11 -11 -12 -12 -11 -12 -12 -13 -12 -12 -12 -12 -11 -10 -9 -8
-6 -4 -5 -6 -7 -7 -10 -11 -11 -11 -10 -9 -10 -11 -10 -11 -11 -12 -11 -12 -13 -13 -13 -12 -12 -12 -12 -12 -12 -12 -12 -12 -12 -11 -11 -10 -10 -10 -9 -9 -10 -9 -9
-7 -6 -6 -7 -8 -9 -10 -11 -11 -10 -10 -11 -11 -12 -12 -13 -13 -12 -13 -14 -14 -13 -13 -13 -12 -12 -13 -12 -12 -12 -11 -11 -11 -11 -11 -10 -10 -9 -9 -9 -9 -9 -8
-6 -6 -7 -8 -9 -9 -9 -10 -10 -10 -10 -10 -11 -13 -13 -14 -15 -14 -15 -14 -14 -14 -13 -13 -13 -13 -13 -12 -12 -12 -12 -11 -12 -11 -11 -11 -10 -9 -8 -8 -8 -7 -7
-6 -7 -9 -8 -8 -8 -8 -9 -9 -9 -9 -10 -12 -11 -12 -15 -14 -14 -14 -14 -14 -14 -13 -13 -14 -13 -13 -13 -13 -12 -12 -12 -12 -12 -11 -11 -10 -10 -9 -8 -8 -8 -8
-7 -10 -9 -8 -8 -9 -8 -8 -9 -10 -9 -11 -10 -11 -12 -14 -13 -14 -14 -14 -14 -14 -14 -14 -14 -14 -14 -14 -14 -13 -13 -13 -13 -12 -12 -11 -11 -10 -10 -9 -8 -7 -8
-9 -10 -8 -8 -7 -7 -8 -9 -9 -9 -10 -10 -10 -12 -12 -12 -13 -14 -14 -14 -14 -14 -14 -15 -15 -15 -15 -14 -14 -14 -13 -13 -13 -12 -12 -12 -12 -11 -10 -10 -9 -9 -8
-8 -8 -9 -8 -8 -8 -8 -9 -9 -10 -10 -11 -10 -11 -11 -12 -14 -14 -14 -15 -15 -15 -15 -15 -15 -15 -15 -15 -15 -14 -13 -14 -14 -13 -12 -12 -12 -11 -10 -11 -10 -10 -9
-7 -7 -8 -9 -8 -8 -9 -9 -9 -10 -10 -11 -10 -11 -11 -14 -14 -14 -14 -15 -16 -16 -17 -16 -16 -15 -15 -15 -15 -15 -14 -14 -14 -14 -13 -12 -12 -11 -11 -11 -11 -10 -10
-8 -7 -8 -9 -8 -9 -9 -9 -9 -10 -10 -11 -11 -11 -12 -13 -15 -14 -14 -15 -16 -19 -18 -17 -16 -16 -16 -16 -16 -15 -15 -15 -15 -14 -13 -13 -12 -12 -11 -12 -12 -12 -11
-8 -7 -8 -8 -9 -9 -9 -9 -10 -10 -10 -11 -11 -11 -12 -13 -14 -14 -14 -15 -15 -24 -26 -23 -19 -21 -24 -22 -21 -19 -17 -18 -18 -17 -14 -14 -13 -13 -12 -12 -12 -12 -12
-7 -9 -9 -9 -9 -9 -9 -10 -10 -10 -10 -11 -11 -12 -12 -12 -13 -14 -14 -14 -15 -16 -27 -31 -29 -29 -29 -29 -28 -28 -30 -30 -29 -27 -18 -15 -14 -14 -13 -12 -13 -13 -12
-9 -9 -9 -9 -9 -9 -9 -10 -10 -10 -10 -10 -11 -11 -12 -12 -13 -13 -14 -14 -15 -15 -18 -32 -34 -32 -31 -31 -31 -31 -31 -31 -32 -31 -23 -18 -15 -16 -14 -13 -13 -13 -14
-10 -9 -9 -9 -10 -10 -10 -10 -10 -10 -10 -10 -11 -11 -12 -12 -12 -13 -14 -14 -14 -17 -19 -21 -26 -31 -33 -32 -31 -31 -30 -31 -32 -32 -30 -22 -20 -20 -17 -16 -15 -13 -14
-10 -9 -9 -10 -10 -10 -10 -10 -10 -10 -10 -10 -10 -11 -11 -12 -12 -13 -13 -14 -15 -18 -24 -27 -33 -33 -32 -31 -30 -30 -29 -29 -30 -31 -32 -31 -30 -29 -25 -20 -22 -15 -15
-10 -9 -9 -10 -10 -9 -10 -9 -10 -10 -10 -10 -11 -11 -11 -12 -12 -13 -13 -14 -15 -18 -23 -22 -24 -26 -27 -28 -29 -30 -29 -28 -29 -31 -32 -32 -33 -33 -33 -31 -28 -23 -21

GFSGL_850_dewp_009.txt.gz
Dewpoint
0 -1 -1 -1 -2 -3 -3 -3 -4 -6 -9 -8 -7 -8 -9 -10 -11 -11 -11 -10 -10 -8 -7 -6 -7 -8 -8 -7 -7 -7 -7 -7 -5 -6 -7 -8 -9 -10 -11 -9 -5 -4 -3
-2 -3 -0 -1 -2 -4 -5 -4 -8 -7 -7 -8 -8 -9 -11 -12 -12 -11 -11 -10 -10 -9 -9 -9 -10 -12 -16 -12 -9 -8 -9 -9 -9 -8 -8 -8 -9 -9 -10 -10 -10 -6 -5
-4 -2 -1 -1 -1 -2 -3 -6 -7 -7 -7 -9 -11 -12 -12 -12 -12 -11 -11 -11 -11 -11 -11 -11 -12 -13 -15 -16 -12 -9 -9 -8 -8 -8 -9 -9 -9 -10 -11 -11 -12 -11 -8
-7 -3 -4 -4 -2 -2 -4 -4 -5 -6 -8 -11 -12 -12 -13 -11 -11 -11 -11 -10 -10 -11 -11 -10 -11 -11 -13 -14 -13 -10 -10 -9 -9 -8 -9 -11 -13 -12 -11 -11 -12 -10 -11
-10 -8 -7 -4 -2 -2 -1 -4 -3 -6 -10 -11 -11 -12 -11 -11 -11 -10 -10 -9 -10 -10 -10 -12 -14 -15 -11 -10 -9 -8 -8 -7 -8 -9 -10 -12 -14 -15 -15 -12 -10 -9 -7
-11 -11 -9 -5 -3 -3 -1 -2 -5 -7 -9 -10 -12 -11 -10 -10 -9 -9 -9 -9 -10 -12 -13 -14 -16 -14 -11 -10 -10 -9 -9 -8 -9 -9 -10 -10 -10 -11 -11 -13 -11 -10 -9
-11 -10 -6 -5 -6 -5 -5 -3 -5 -5 -8 -11 -11 -10 -10 -9 -8 -8 -10 -12 -11 -11 -12 -14 -15 -13 -13 -13 -12 -11 -10 -9 -9 -9 -9 -9 -10 -12 -13 -11 -11 -11 -10
-11 -9 -8 -6 -7 -6 -4 -3 -5 -8 -10 -11 -10 -10 -10 -9 -10 -13 -11 -10 -10 -11 -13 -14 -14 -12 -12 -12 -13 -12 -12 -12 -12 -12 -13 -13 -13 -13 -12 -11 -9 -9 -9
-9 -8 -8 -6 -6 -4 -4 -4 -8 -10 -10 -10 -10 -11 -10 -10 -12 -11 -10 -11 -11 -12 -13 -14 -14 -14 -13 -12 -12 -11 -11 -12 -13 -12 -12 -10 -10 -10 -10 -9 -10 -10 -12
-9 -8 -7 -6 -5 -6 -7 -7 -10 -10 -11 -11 -11 -10 -11 -12 -11 -10 -11 -11 -12 -13 -13 -14 -14 -12 -11 -12 -11 -12 -12 -12 -11 -11 -11 -12 -13 -13 -12 -12 -12 -9 -9
-8 -7 -8 -7 -6 -7 -7 -9 -10 -11 -11 -10 -10 -10 -12 -14 -13 -13 -12 -12 -12 -13 -13 -13 -13 -13 -12 -12 -12 -12 -12 -12 -12 -12 -13 -13 -12 -12 -11 -12 -12 -12 -11
-7 -7 -6 -7 -6 -7 -7 -9 -10 -10 -10 -10 -10 -12 -13 -14 -16 -17 -15 -14 -13 -13 -13 -13 -13 -13 -13 -12 -12 -12 -12 -12 -12 -11 -11 -11 -10 -10 -9 -9 -9 -9 -9
-7 -7 -6 -7 -8 -9 -9 -9 -9 -10 -9 -10 -11 -11 -13 -13 -16 -15 -15 -15 -14 -14 -13 -13 -13 -13 -13 -12 -12 -12 -12 -11 -11 -11 -11 -11 -10 -10 -10 -9 -9 -9 -9
-8 -8 -8 -8 -9 -8 -8 -9 -9 -9 -9 -10 -10 -12 -12 -13 -15 -14 -14 -14 -14 -14 -14 -14 -14 -13 -13 -13 -13 -13 -12 -12 -12 -12 -12 -11 -10 -10 -10 -9 -9 -8 -8
-6 -7 -9 -11 -10 -10 -9 -8 -8 -9 -10 -10 -11 -11 -12 -13 -14 -13 -14 -14 -14 -14 -14 -14 -14 -14 -14 -14 -14 -13 -13 -13 -13 -12 -12 -11 -11 -11 -10 -9 -8 -8 -8
-5 -8 -10 -11 -10 -8 -7 -7 -8 -9 -10 -11 -11 -11 -12 -12 -12 -13 -14 -14 -14 -14 -14 -15 -15 -15 -15 -14 -14 -14 -13 -13 -13 -12 -12 -12 -11 -10 -10 -10 -9 -9 -8
-6 -7 -8 -10 -10 -9 -8 -8 -8 -11 -10 -11 -11 -10 -11 -12 -12 -14 -14 -15 -17 -16 -15 -15 -15 -15 -15 -15 -15 -14 -13 -14 -13 -13 -12 -12 -11 -10 -11 -11 -10 -10 -10
-6 -7 -8 -7 -7 -10 -9 -9 -9 -10 -10 -11 -11 -10 -11 -11 -12 -16 -14 -15 -20 -23 -20 -17 -16 -15 -16 -16 -15 -14 -14 -14 -14 -13 -12 -12 -11 -11 -11 -12 -11 -10 -10
-6 -7 -7 -7 -7 -9 -9 -9 -9 -10 -10 -11 -11 -11 -11 -11 -13 -16 -15 -15 -15 -25 -26 -21 -17 -17 -17 -17 -17 -15 -15 -15 -15 -14 -13 -12 -12 -12 -11 -11 -12 -11 -11
-7 -7 -7 -7 -8 -10 -9 -9 -10 -10 -10 -10 -11 -11 -11 -11 -12 -14 -15 -15 -15 -17 -30 -29 -23 -23 -24 -23 -22 -20 -21 -24 -21 -15 -13 -13 -13 -12 -12 -12 -12 -12 -12
-7 -7 -7 -7 -8 -10 -9 -10 -10 -10 -10 -10 -11 -11 -12 -12 -12 -13 -13 -16 -16 -16 -19 -33 -32 -31 -30 -29 -28 -29 -30 -31 -30 -22 -15 -14 -14 -13 -12 -12 -13 -12 -12
-7 -8 -8 -8 -9 -9 -9 -9 -10 -10 -10 -11 -11 -11 -11 -12 -12 -12 -13 -14 -16 -17 -17 -21 -32 -34 -32 -31 -31 -31 -31 -31 -32 -30 -21 -18 -17 -14 -13 -13 -13 -14 -14
-9 -11 -10 -9 -9 -10 -10 -9 -10 -10 -10 -10 -11 -11 -11 -12 -12 -12 -12 -13 -15 -16 -19 -21 -24 -27 -30 -31 -31 -31 -30 -30 -31 -32 -30 -23 -22 -21 -16 -15 -14 -13 -15
-10 -11 -12 -10 -10 -10 -10 -10 -10 -10 -10 -10 -11 -11 -11 -11 -12 -12 -13 -13 -14 -15 -19 -24 -26 -31 -33 -31 -30 -30 -30 -29 -29 -30 -31 -30 -28 -27 -24 -19 -16 -14 -15
-8 -8 -9 -9 -9 -10 -10 -10 -10 -10 -10 -10 -11 -11 -11 -11 -11 -12 -12 -13 -13 -14 -17 -21 -22 -22 -25 -26 -27 -28 -29 -29 -28 -29 -31 -30 -32 -31 -32 -29 -26 -22 -22
-8 -8 -10 -10 -10 -10 -10 -10 -10 -9 -10 -10 -11 -11 -11 -11 -12 -12 -12 -13 -13 -13 -14 -16 -19 -19 -16 -15 -15 -16 -22 -27 -26 -27 -31 -32 -33 -34 -33 -33 -32 -31 -31

GFSGL_850_dewp_012.txt.gz
Dewpoint
-5 -6 -6 -4 -4 -2 -1 -2 -2 -3 -4 -8 -8 -8 -10 -11 -12 -12 -12 -12 -11 -11 -9 -9 -9 -10 -10 -11 -12 -15 -12 -8 -6 -7 -8 -10 -10 -8 -9 -10 -10 -9 -8
-7 -6 -3 -2 -1 -2 -1 -1 -3 -3 -6 -6 -6 -9 -11 -12 -13 -13 -12 -12 -11 -11 -11 -11 -11 -12 -13 -12 -12 -14 -16 -13 -9 -8 -7 -8 -9 -9 -9 -9 -10 -11 -10
-9 -10 -10 -11 -11 -6 -2 -2 -3 -4 -4 -4 -9 -11 -12 -12 -12 -11 -11 -11 -10 -10 -10 -9 -10 -11 -12 -13 -13 -13 -14 -16 -11 -9 -9 -8 -8 -9 -11 -11 -10 -11 -11
-10 -11 -12 -14 -11 -2 -3 -4 -3 -4 -6 -8 -11 -11 -11 -11 -11 -11 -10 -10 -9 -9 -9 -10 -13 -14 -15 -15 -13 -11 -10 -9 -10 -10 -8 -8 -9 -10 -12 -13 -15 -13 -11
-11 -13 -14 -15 -10 -9 -9 -8 -3 -6 -6 -10 -9 -8 -11 -11 -10 -9 -9 -9 -9 -11 -12 -12 -12 -13 -15 -13 -10 -10 -10 -9 -9 -8 -8 -8 -10 -11 -13 -14 -13 -13 -13
-13 -13 -12 -12 -9 -9 -8 -4 -3 -6 -8 -5 -7 -11 -10 -9 -9 -8 -9 -12 -13 -12 -11 -11 -13 -14 -15 -13 -12 -13 -10 -10 -10 -9 -8 -8 -9 -10 -11 -11 -12 -14 -15
-11 -11 -11 -10 -9 -9 -7 -4 -3 -3 -5 -8 -10 -10 -9 -9 -9 -11 -12 -11 -11 -12 -12 -12 -13 -14 -14 -14 -14 -14 -13 -13 -12 -11 -10 -9 -9 -10 -11 -11 -12 -12 -11
-11 -10 -10 -9 -8 -9 -5 -6 -5 -6 -7 -10 -9 -10 -10 -10 -12 -13 -12 -12 -12 -12 -12 -13 -14 -13 -13 -13 -12 -11 -12 -11 -12 -11 -11 -12 -13 -13 -13 -13 -12 -11 -11
-10 -9 -8 -8 -8 -8 -7 -6 -6 -7 -9 -10 -10 -10 -10 -11 -13 -14 -15 -16 -15 -15 -16 -15 -13 -13 -12 -12 -12 -12 -12 -13 -12 -11 -10 -11 -11 -10 -11 -10 -10 -9 -9
-8 -8 -7 -7 -7 -6 -7 -7 -8 -9 -10 -10 -10 -10 -11 -13 -15 -17 -16 -13 -14 -14 -14 -14 -14 -13 -12 -12 -12 -12 -12 -13 -13 -14 -13 -12 -11 -10 -11 -13 -12 -11 -11
-7 -6 -7 -7 -6 -7 -7 -7 -7 -8 -10 -10 -10 -10 -12 -14 -16 -18 -16 -13 -13 -14 -14 -14 -14 -13 -12 -13 -12 -12 -12 -12 -12 -12 -12 -12 -13 -13 -12 -12 -13 -13 -13
-6 -6 -8 -7 -7 -8 -8 -8 -9 -9 -9 -9 -10 -11 -12 -15 -17 -18 -15 -14 -14 -14 -14 -14 -13 -13 -13 -12 -12 -12 -12 -12 -11 -11 -11 -11 -11 -10 -10 -10 -10 -9 -9
-6 -6 -7 -8 -8 -8 -8 -7 -8 -9 -9 -9 -11 -11 -13 -14 -16 -18 -15 -14 -14 -13 -14 -14 -14 -13 -13 -13 -13 -13 -12 -12 -12 -12 -11 -11 -11 -10 -10 -10 -9 -9 -9
-5 -5 -6 -8 -10 -10 -9 -8 -8 -8 -8 -10 -11 -12 -13 -13 -15 -16 -14 -14 -14 -14 -14 -14 -14 -15 -14 -14 -14 -13 -13 -13 -13 -12 -12 -11 -11 -11 -10 -9 -9 -9 -8
-5 -5 -5 -9 -10 -11 -9 -7 -7 -8 -9 -11 -11 -11 -12 -13 -13 -13 -13 -14 -14 -15 -14 -15 -16 -17 -17 -16 -14 -13 -14 -13 -13 -12 -12 -12 -11 -10 -10 -9 -9 -8 -8
-5 -5 -5 -7 -9 -10 -9 -8 -8 -8 -10 -11 -11 -11 -12 -12 -12 -12 -13 -14 -18 -20 -17 -16 -18 -16 -16 -16 -15 -15 -14 -14 -13 -13 -12 -12 -11 -10 -10 -10 -9 -9 -8
-5 -6 -6 -7 -7 -7 -9 -9 -9 -10 -11 -10 -11 -12 -11 -12 -12 -13 -15 -15 -18 -28 -24 -19 -17 -17 -17 -16 -15 -15 -14 -14 -14 -13 -12 -12 -11 -11 -11 -11 -10 -10 -9
-6 -7 -7 -7 -7 -7 -8 -9 -9 -10 -10 -11 -11 -11 -11 -11 -12 -13 -16 -16 -16 -27 -31 -23 -19 -19 -21 -19 -18 -16 -16 -16 -15 -13 -13 -12 -12 -12 -12 -11 -11 -11 -10
-7 -7 -7 -7 -7 -8 -9 -10 -10 -10 -10 -11 -11 -12 -12 -12 -12 -13 -13 -15 -17 -16 -28 -32 -25 -24 -26 -23 -23 -22 -24 -26 -19 -14 -13 -13 -12 -12 -12 -12 -11 -11 -12
-7 -7 -7 -7 -8 -8 -9 -10 -10 -10 -10 -11 -11 -11 -11 -12 -12 -12 -13 -13 -15 -17 -17 -30 -34 -31 -30 -30 -28 -29 -31 -31 -29 -17 -14 -14 -13 -13 -13 -13 -13 -12 -12
-7 -7 -8 -8 -8 -9 -9 -10 -10 -10 -10 -11 -11 -11 -11 -12 -12 -12 -13 -13 -14 -16 -18 -18 -22 -32 -33 -32 -31 -31 -30 -31 -32 -26 -19 -17 -16 -14 -13 -13 -13 -13 -13
-7 -7 -8 -9 -9 -9 -10 -9 -10 -10 -11 -11 -11 -11 -11 -12 -12 -12 -12 -13 -13 -14 -17 -20 -24 -27 -27 -28 -28 -29 -30 -29 -30 -31 -30 -23 -21 -18 -15 -14 -14 -14 -15
-6 -7 -10 -12 -11 -10 -10 -10 -10 -10 -10 -10 -11 -11 -11 -11 -11 -12 -13 -13 -13 -14 -14 -18 -24 -24 -30 -32 -31 -27 -25 -24 -27 -29 -31 -31 -28 -26 -23 -18 -17 -15 -15
-6 -8 -9 -9 -10 -10 -10 -10 -10 -10 -10 -10 -11 -11 -11 -11 -12 -12 -12 -13 -13 -13 -14 -15 -18 -21 -21 -21 -25 -28 -28 -27 -27 -28 -29 -31 -31 -31 -31 -28 -23 -19 -20
-7 -7 -8 -8 -8 -9 -10 -10 -10 -10 -10 -10 -10 -11 -11 -11 -12 -12 -13 -13 -13 -13 -13 -14 -14 -17 -19 -16 -15 -15 -15 -20 -25 -25 -27 -31 -32 -33 -33 -33 -31 -30 -30
-7 -7 -7 -8 -8 -8 -9 -10 -10 -10 -10 -10 -10 -11 -11 -11 -12 -12 -12 -13 -13 -13 -13 -14 -14 -14 -15 -15 -15 -15 -15 -15 -16 -15 -15 -17 -29 -35 -34 -33 -31 -30 -30

GFSGL_850_dewp_015.txt.gz
Dewpoint
-7 -9 -9 -9 -6 -11 -12 -5 -2 -3 -3 -3 -3 -4 -5 -10 -12 -12 -14 -14 -12 -11 -11 -10 -10 -11 -10 -10 -11 -12 -13 -12 -13 -14 -13 -10 -8 -9 -11 -12 -10 -9 -11
-8 -9 -10 -11 -14 -17 -13 -3 -3 -4 -5 -4 -4 -3 -9 -12 -12 -13 -12 -12 -11 -10 -10 -10 -9 -9 -9 -10 -13 -15 -15 -15 -13 -13 -15 -11 -8 -8 -8 -9 -12 -12 -10
-10 -11 -11 -13 -16 -15 -13 -12 -12 -10 -5 -3 -3 -5 -11 -12 -10 -11 -11 -10 -10 -9 -9 -8 -9 -12 -13 -13 -14 -16 -16 -13 -10 -9 -11 -13 -9 -9 -10 -11 -11 -12 -14
-11 -12 -13 -14 -12 -11 -11 -10 -12 -5 -2 -5 -7 -9 -11 -8 -10 -11 -10 -9 -9 -8 -10 -13 -12 -11 -12 -13 -15 -14 -11 -10 -10 -10 -9 -9 -9 -8 -9 -11 -13 -13 -14
-12 -12 -12 -12 -10 -10 -9 -10 -8 -3 -3 -4 -6 -10 -7 -9 -10 -9 -9 -9 -10 -12 -12 -12 -11 -12 -11 -12 -12 -12 -12 -12 -11 -10 -10 -10 -9 -8 -9 -11 -12 -14 -15
-12 -12 -11 -10 -9 -9 -8 -10 -7 -5 -4 -5 -6 -8 -9 -9 -9 -10 -10 -12 -12 -12 -12 -12 -12 -14 -15 -13 -13 -12 -12 -11 -11 -11 -11 -10 -9 -9 -9 -10 -11 -12 -13
-11 -10 -10 -9 -8 -7 -8 -8 -7 -7 -6 -6 -6 -8 -9 -9 -10 -11 -12 -14 -14 -15 -14 -14 -15 -14 -13 -13 -13 -12 -11 -11 -11 -11 -11 -11 -11 -10 -9 -10 -11 -11 -12
-11 -9 -8 -8 -7 -7 -8 -7 -6 -6 -7 -7 -8 -9 -9 -10 -11 -13 -15 -17 -17 -16 -15 -15 -14 -13 -13 -12 -12 -12 -13 -13 -12 -12 -11 -11 -12 -12 -12 -13 -13 -13 -13
-9 -9 -8 -7 -7 -7 -7 -7 -7 -7 -8 -9 -8 -8 -10 -10 -13 -15 -18 -17 -16 -15 -15 -14 -13 -13 -13 -12 -12 -12 -12 -13 -13 -13 -14 -12 -10 -11 -10 -10 -10 -10 -10
-9 -7 -6 -6 -8 -7 -7 -7 -7 -7 -7 -7 -8 -10 -10 -12 -14 -17 -18 -16 -15 -14 -14 -14 -14 -14 -13 -13 -12 -12 -12 -12 -12 -12 -13 -13 -14 -12 -11 -10 -11 -11 -11
-7 -7 -6 -7 -7 -8 -8 -8 -8 -8 -8 -9 -9 -10 -11 -13 -15 -18 -18 -16 -13 -13 -14 -14 -14 -13 -13 -13 -13 -12 -12 -12 -12 -12 -12 -11 -11 -12 -13 -14 -13 -13 -14
-8 -9 -6 -6 -6 -8 -8 -8 -8 -8 -9 -9 -9 -11 -11 -13 -15 -17 -17 -15 -13 -14 -14 -14 -14 -14 -13 -13 -13 -13 -13 -12 -12 -12 -11 -11 -11 -11 -10 -10 -10 -10 -10
-10 -7 -5 -5 -5 -9 -9 -8 -8 -9 -8 -8 -10 -11 -12 -13 -14 -16 -17 -15 -15 -15 -15 -14 -14 -16 -17 -15 -14 -13 -13 -13 -13 -12 -12 -12 -11 -11 -10 -10 -10 -10 -9
-8 -6 -6 -5 -6 -9 -10 -9 -8 -8 -8 -8 -10 -11 -12 -12 -13 -15 -16 -15 -17 -22 -19 -15 -15 -18 -17 -15 -14 -14 -14 -13 -13 -12 -12 -12 -11 -11 -10 -10 -9 -9 -9
-7 -6 -6 -5 -6 -8 -11 -8 -8 -8 -8 -9 -11 -11 -12 -12 -13 -13 -14 -16 -16 -25 -27 -21 -22 -21 -19 -17 -15 -15 -15 -14 -13 -13 -12 -12 -11 -11 -10 -10 -9 -9 -8
-6 -6 -6 -6 -7 -7 -8 -8 -8 -9 -9 -10 -10 -11 -12 -12 -12 -13 -15 -17 -16 -23 -31 -27 -23 -21 -20 -19 -17 -16 -16 -15 -14 -13 -12 -12 -11 -11 -11 -10 -10 -9 -9
-7 -6 -7 -6 -7 -7 -8 -8 -9 -10 -10 -10 -11 -11 -12 -12 -12 -12 -14 -16 -17 -17 -33 -30 -25 -25 -25 -21 -19 -18 -18 -18 -15 -13 -13 -12 -12 -12 -11 -11 -11 -10 -10
-6 -7 -7 -8 -8 -8 -8 -8 -9 -10 -10 -11 -11 -11 -12 -12 -12 -13 -13 -14 -17 -17 -19 -33 -31 -30 -30 -26 -25 -26 -30 -26 -18 -14 -13 -13 -12 -12 -12 -12 -12 -11 -11
-6 -7 -7 -8 -8 -8 -8 -9 -9 -10 -10 -11 -11 -11 -12 -12 -12 -12 -12 -13 -15 -18 -17 -20 -31 -33 -32 -31 -30 -30 -31 -31 -27 -15 -14 -14 -13 -13 -13 -12 -12 -12 -12
-7 -7 -7 -8 -8 -9 -9 -10 -9 -10 -10 -11 -11 -11 -11 -11 -12 -12 -12 -13 -14 -16 -18 -20 -19 -23 -29 -32 -31 -30 -30 -30 -32 -26 -19 -17 -15 -14 -13 -13 -13 -13 -13
-7 -7 -7 -8 -8 -9 -10 -10 -9 -10 -10 -11 -11 -11 -11 -11 -12 -12 -12 -13 -13 -14 -16 -18 -23 -26 -28 -26 -25 -24 -26 -28 -29 -31 -30 -23 -21 -20 -15 -14 -14 -14 -14
-7 -7 -7 -8 -8 -9 -10 -10 -10 -10 -10 -10 -11 -11 -11 -12 -12 -11 -12 -13 -13 -14 -14 -16 -21 -23 -23 -28 -31 -30 -25 -25 -25 -27 -30 -31 -28 -26 -24 -18 -17 -16 -15
-7 -7 -7 -7 -10 -11 -11 -10 -10 -10 -10 -10 -11 -11 -11 -11 -11 -11 -12 -13 -13 -13 -14 -14 -16 -18 -20 -20 -20 -23 -26 -25 -25 -26 -27 -30 -30 -31 -31 -29 -26 -23 -21
-7 -7 -7 -7 -8 -8 -9 -10 -10 -10 -10 -10 -11 -10 -11 -11 -11 -12 -13 -13 -14 -14 -14 -14 -14 -14 -16 -18 -16 -15 -15 -15 -19 -24 -24 -27 -31 -32 -33 -32 -31 -30 -29
-7 -7 -7 -7 -8 -8 -8 -8 -9 -9 -10 -10 -10 -10 -10 -10 -12 -12 -12 -13 -14 -14 -14 -14 -14 -14 -15 -15 -15 -15 -15 -15 -16 -16 -16 -15 -18 -32 -34 -34 -32 -31 -31
-8 -8 -7 -8 -8 -7 -8 -8 -8 -8 -9 -10 -10 -10 -10 -11 -12 -12 -13 -14 -14 -14 -14 -14 -14 -14 -14 -15 -15 -15 -15 -15 -16 -16 -15 -15 -16 -19 -27 -32 -30 -28 -27

GFSGL_850_dewp_021.txt.gz
Dewpoint
-8 -9 -10 -11 -12 -14 -17 -15 -12 -11 -13 -14 -12 -6 -4 -4 -4 -4 -6 -11 -10 -10 -11 -10 -10 -9 -9 -8 -8 -9 -10 -11 -11 -12 -12 -12 -12 -11 -10 -10 -10 -9 -8
-8 -10 -11 -12 -13 -16 -13 -10 -9 -9 -11 -13 -11 -6 -6 -5 -4 -6 -10 -9 -9 -9 -10 -10 -9 -8 -9 -9 -9 -10 -10 -11 -11 -12 -13 -12 -11 -10 -10 -9 -9 -9 -9
-10 -11 -12 -12 -13 -12 -10 -9 -9 -10 -11 -11 -8 -6 -3 -4 -4 -10 -9 -8 -9 -9 -9 -10 -11 -10 -9 -10 -10 -10 -11 -11 -11 -11 -12 -11 -11 -11 -9 -9 -9 -9 -9
-11 -12 -11 -11 -11 -10 -9 -9 -9 -9 -10 -9 -7 -5 -5 -5 -6 -8 -8 -9 -9 -10 -11 -12 -15 -16 -12 -11 -11 -11 -11 -11 -11 -11 -11 -12 -11 -11 -10 -9 -10 -10 -10
-12 -10 -11 -11 -10 -9 -8 -9 -9 -9 -8 -8 -7 -7 -6 -4 -5 -6 -9 -9 -10 -11 -14 -18 -19 -17 -16 -14 -12 -11 -12 -11 -11 -11 -12 -12 -12 -12 -11 -11 -10 -9 -9
-11 -10 -11 -10 -11 -9 -9 -9 -9 -9 -8 -6 -6 -7 -6 -7 -8 -9 -9 -10 -11 -15 -19 -18 -17 -16 -12 -12 -14 -13 -12 -12 -11 -11 -12 -10 -11 -11 -11 -11 -10 -10 -10
-10 -12 -12 -14 -11 -9 -9 -10 -9 -8 -8 -7 -6 -7 -7 -8 -8 -9 -10 -12 -15 -19 -18 -16 -13 -12 -13 -13 -12 -12 -12 -12 -12 -12 -11 -11 -12 -12 -11 -10 -10 -10 -9
-14 -15 -17 -13 -10 -10 -10 -9 -8 -9 -9 -7 -8 -7 -7 -7 -9 -9 -12 -15 -18 -19 -17 -14 -12 -13 -13 -13 -12 -12 -12 -12 -11 -11 -11 -11 -11 -11 -11 -11 -11 -10 -10
-18 -17 -14 -11 -12 -12 -8 -7 -7 -9 -8 -8 -8 -8 -7 -9 -9 -11 -14 -16 -18 -18 -16 -13 -13 -13 -13 -13 -13 -12 -12 -12 -12 -12 -12 -12 -12 -12 -12 -11 -11 -10 -10
-18 -15 -14 -13 -14 -12 -6 -6 -7 -9 -8 -8 -8 -7 -8 -9 -10 -13 -15 -16 -18 -17 -15 -17 -16 -14 -13 -13 -13 -13 -13 -12 -13 -12 -12 -11 -11 -11 -11 -12 -11 -10 -10
-15 -15 -14 -15 -14 -11 -7 -6 -7 -10 -9 -8 -8 -8 -8 -9 -11 -13 -14 -15 -16 -15 -17 -25 -20 -17 -15 -15 -14 -14 -13 -14 -13 -13 -12 -12 -11 -11 -11 -11 -11 -11 -11
-15 -14 -15 -14 -12 -9 -6 -7 -7 -9 -9 -8 -8 -9 -9 -10 -12 -13 -14 -15 -19 -17 -18 -28 -30 -23 -23 -21 -17 -15 -15 -15 -13 -13 -13 -12 -12 -12 -11 -11 -11 -11 -10
-15 -15 -15 -12 -11 -7 -6 -6 -6 -9 -8 -8 -8 -9 -9 -10 -11 -12 -13 -14 -18 -18 -17 -28 -31 -27 -26 -23 -20 -17 -16 -16 -14 -13 -13 -12 -12 -11 -11 -10 -10 -10 -10
-15 -14 -11 -9 -8 -6 -7 -6 -7 -10 -10 -8 -9 -9 -10 -11 -11 -12 -13 -14 -16 -19 -18 -23 -30 -28 -28 -26 -24 -21 -22 -18 -14 -13 -13 -12 -11 -11 -11 -10 -10 -9 -9
-14 -11 -9 -9 -7 -7 -7 -7 -7 -9 -9 -9 -9 -10 -10 -11 -11 -11 -12 -14 -14 -17 -19 -19 -25 -29 -29 -28 -28 -30 -30 -21 -15 -14 -13 -12 -12 -12 -11 -11 -10 -10 -9
-11 -9 -9 -8 -8 -8 -7 -7 -8 -9 -9 -9 -11 -11 -10 -11 -11 -11 -12 -13 -14 -15 -19 -18 -19 -23 -28 -29 -29 -29 -30 -31 -21 -14 -14 -13 -13 -12 -12 -12 -11 -10 -10
-9 -8 -8 -8 -7 -7 -7 -7 -8 -8 -9 -9 -10 -11 -11 -11 -11 -11 -12 -13 -13 -14 -17 -20 -18 -19 -21 -26 -29 -29 -29 -29 -30 -18 -14 -14 -13 -13 -13 -13 -12 -12 -11
-9 -8 -8 -8 -8 -7 -7 -7 -8 -8 -8 -9 -11 -10 -11 -11 -11 -11 -11 -12 -13 -14 -14 -17 -20 -21 -20 -21 -22 -22 -24 -26 -28 -30 -27 -21 -17 -14 -14 -13 -13 -13 -13
-8 -7 -7 -7 -7 -8 -7 -7 -8 -10 -9 -10 -11 -10 -11 -11 -11 -11 -11 -12 -13 -13 -14 -15 -17 -19 -22 -23 -26 -26 -22 -20 -21 -23 -28 -28 -25 -23 -20 -15 -14 -14 -14
-8 -8 -8 -8 -8 -8 -7 -7 -8 -9 -10 -10 -10 -10 -11 -11 -11 -12 -11 -12 -13 -13 -14 -14 -15 -16 -18 -19 -20 -22 -27 -28 -26 -24 -24 -25 -28 -27 -26 -22 -17 -17 -15
-8 -8 -8 -8 -8 -8 -8 -7 -8 -10 -10 -11 -11 -11 -11 -11 -11 -11 -12 -12 -13 -13 -14 -15 -15 -15 -16 -16 -17 -18 -18 -20 -23 -21 -23 -25 -26 -28 -29 -28 -21 -22 -17
-8 -8 -8 -9 -9 -8 -8 -7 -8 -10 -11 -11 -11 -11 -10 -10 -10 -11 -12 -12 -13 -13 -13 -14 -15 -15 -15 -15 -15 -16 -16 -15 -16 -16 -19 -23 -24 -26 -30 -31 -30 -27 -25
-7 -8 -9 -9 -9 -8 -8 -7 -7 -8 -9 -10 -10 -10 -10 -11 -11 -11 -11 -12 -12 -12 -13 -14 -15 -15 -15 -15 -15 -15 -16 -15 -15 -15 -16 -17 -17 -17 -24 -31 -31 -31 -31
-8 -9 -9 -10 -9 -8 -8 -8 -8 -8 -9 -9 -9 -9 -9 -9 -10 -11 -11 -11 -12 -12 -13 -14 -15 -15 -15 -15 -15 -15 -15 -15 -15 -15 -16 -16 -16 -16 -17 -25 -30 -28 -28
-8 -9 -9 -9 -9 -8 -8 -8 -8 -8 -8 -8 -8 -8 -8 -8 -8 -9 -10 -11 -11 -11 -12 -13 -14 -15 -15 -14 -15 -15 -15 -16 -16 -16 -16 -16 -16 -16 -17 -19 -20 -25 -26
-9 -8 -9 -8 -9 -9 -8 -8 -8 -8 -8 -8 -8 -8 -8 -8 -8 -8 -8 -9 -11 -11 -11 -13 -14 -15 -14 -14 -14 -15 -15 -16 -16 -16 -16 -16 -16 -17 -17 -19 -20 -20 -21

GFSGL_850_dewp_024.txt.gz
Dewpoint
-6 -8 -9 -8 -9 -8 -7 -8 -7 -6 -6 -6 -6 -5 -5 -5 -4 -4 -4 -3 -5 -7 -6 -6 -7 -8 -9 -10 -10 -11 -11 -12 -12 -13 -12 -12 -12 -11 -11 -10 -10 -10 -10
-5 -8 -8 -11 -8 -7 -8 -7 -6 -5 -6 -6 -5 -5 -5 -4 -3 -3 -3 -6 -6 -7 -7 -7 -7 -8 -10 -10 -11 -11 -12 -12 -11 -11 -12 -11 -11 -11 -11 -10 -11 -10 -10
-7 -8 -9 -8 -7 -8 -7 -6 -5 -5 -6 -5 -5 -5 -5 -4 -5 -5 -5 -6 -6 -6 -6 -7 -8 -9 -10 -11 -11 -12 -12 -11 -10 -10 -11 -11 -11 -11 -11 -10 -10 -9 -10
-8 -9 -9 -7 -7 -7 -6 -5 -5 -5 -6 -5 -5 -5 -4 -5 -4 -5 -6 -5 -6 -7 -7 -8 -10 -11 -11 -11 -11 -11 -11 -11 -11 -11 -11 -11 -11 -12 -12 -11 -10 -10 -9
-8 -9 -8 -7 -8 -7 -6 -5 -5 -5 -5 -5 -5 -4 -5 -5 -6 -6 -6 -6 -7 -9 -10 -11 -12 -12 -15 -12 -11 -11 -11 -11 -11 -11 -11 -11 -11 -11 -10 -11 -11 -12 -11
-10 -8 -8 -13 -9 -7 -5 -5 -6 -6 -6 -6 -5 -4 -5 -6 -7 -8 -8 -9 -9 -11 -12 -13 -12 -12 -11 -12 -12 -12 -12 -11 -11 -10 -10 -11 -11 -12 -12 -12 -11 -10 -10
-10 -9 -11 -10 -9 -7 -7 -7 -7 -6 -5 -6 -5 -5 -6 -6 -7 -7 -10 -10 -11 -11 -12 -12 -12 -12 -12 -11 -12 -12 -11 -11 -11 -11 -11 -10 -10 -11 -10 -11 -11 -11 -9
-10 -11 -10 -9 -8 -7 -7 -7 -6 -6 -6 -6 -5 -6 -6 -7 -8 -9 -10 -12 -11 -11 -11 -11 -11 -12 -12 -12 -12 -12 -12 -12 -13 -12 -11 -11 -11 -11 -10 -10 -10 -11 -10
-11 -11 -10 -9 -7 -8 -8 -7 -6 -6 -6 -6 -6 -6 -6 -7 -8 -9 -11 -12 -9 -10 -11 -11 -12 -13 -12 -13 -13 -12 -13 -13 -12 -12 -12 -13 -13 -13 -12 -11 -10 -11 -10
-16 -17 -16 -8 -8 -8 -8 -6 -6 -6 -7 -7 -7 -6 -7 -7 -9 -10 -12 -13 -10 -10 -10 -11 -13 -16 -19 -14 -13 -13 -12 -12 -12 -12 -12 -12 -12 -11 -11 -11 -10 -11 -11
-20 -17 -12 -8 -8 -8 -7 -6 -6 -6 -6 -6 -9 -8 -7 -8 -9 -10 -12 -13 -11 -11 -11 -11 -12 -23 -28 -24 -22 -13 -14 -14 -13 -12 -12 -11 -11 -11 -11 -10 -10 -10 -10
-18 -16 -9 -8 -8 -7 -6 -6 -6 -6 -6 -6 -8 -8 -7 -8 -9 -10 -12 -13 -14 -15 -13 -11 -16 -27 -29 -27 -22 -21 -20 -15 -13 -13 -12 -11 -11 -11 -11 -10 -10 -10 -10
-16 -13 -7 -6 -6 -7 -6 -6 -5 -6 -6 -6 -7 -7 -7 -8 -8 -9 -12 -13 -14 -15 -17 -18 -19 -25 -29 -20 -18 -27 -17 -14 -13 -13 -12 -12 -12 -11 -11 -10 -10 -9 -9
-15 -8 -7 -6 -6 -6 -7 -6 -6 -6 -6 -6 -7 -8 -8 -8 -8 -9 -10 -11 -11 -12 -12 -16 -18 -19 -19 -19 -14 -14 -15 -19 -14 -13 -13 -13 -12 -12 -11 -10 -10 -9 -9
-11 -7 -7 -6 -6 -6 -6 -6 -6 -6 -7 -7 -7 -8 -8 -9 -9 -9 -11 -11 -11 -12 -15 -16 -12 -13 -13 -14 -14 -14 -14 -17 -16 -14 -13 -13 -12 -12 -12 -11 -10 -10 -9
-12 -9 -6 -6 -6 -6 -6 -6 -7 -8 -8 -9 -10 -10 -11 -11 -10 -11 -11 -12 -12 -14 -14 -12 -12 -12 -13 -13 -14 -14 -14 -15 -23 -17 -14 -14 -13 -13 -12 -11 -11 -10 -10
-11 -10 -7 -6 -6 -6 -7 -7 -7 -7 -8 -8 -8 -9 -11 -12 -11 -11 -11 -11 -12 -13 -12 -11 -12 -12 -12 -13 -14 -14 -14 -15 -19 -19 -16 -14 -14 -14 -13 -12 -12 -11 -11
-10 -8 -7 -6 -7 -7 -7 -7 -7 -7 -7 -7 -8 -8 -9 -11 -12 -11 -11 -11 -11 -11 -12 -11 -12 -12 -12 -13 -14 -15 -18 -20 -16 -19 -17 -17 -15 -14 -13 -13 -13 -13 -12
-8 -6 -7 -7 -7 -8 -8 -8 -8 -8 -7 -8 -8 -8 -9 -10 -11 -11 -11 -11 -11 -11 -10 -11 -11 -12 -12 -13 -13 -14 -19 -20 -24 -22 -17 -18 -16 -15 -14 -14 -13 -13 -13
-6 -6 -7 -7 -7 -8 -7 -8 -8 -8 -8 -8 -8 -8 -9 -9 -10 -10 -10 -10 -11 -11 -11 -11 -11 -11 -12 -13 -13 -14 -14 -14 -14 -16 -18 -20 -15 -15 -15 -15 -14 -14 -14
-6 -6 -7 -8 -7 -8 -8 -9 -8 -8 -7 -7 -8 -8 -9 -9 -9 -10 -10 -10 -10 -10 -11 -11 -11 -12 -12 -13 -13 -14 -14 -14 -14 -15 -16 -19 -21 -15 -15 -17 -15 -14 -14
-6 -7 -7 -7 -7 -8 -9 -9 -8 -8 -8 -8 -8 -9 -9 -9 -10 -10 -10 -10 -10 -10 -10 -11 -11 -11 -12 -12 -13 -13 -14 -14 -14 -15 -15 -16 -17 -15 -15 -15 -17 -17 -15
-7 -7 -7 -8 -8 -8 -9 -9 -8 -8 -8 -8 -8 -8 -8 -8 -9 -9 -9 -10 -10 -10 -10 -12 -13 -13 -13 -15 -15 -15 -15 -14 -15 -15 -15 -16 -15 -16 -15 -15 -15 -17 -22
-7 -9 -9 -9 -9 -8 -9 -8 -9 -8 -8 -8 -8 -8 -8 -8 -8 -8 -8 -9 -9 -11 -12 -12 -12 -13 -14 -15 -15 -15 -15 -16 -16 -16 -16 -16 -16 -15 -16 -16 -16 -17 -17
-9 -8 -8 -9 -9 -8 -9 -9 -9 -8 -8 -8 -8 -8 -8 -8 -8 -8 -8 -8 -8 -8 -9 -12 -11 -12 -14 -14 -15 -15 -15 -16 -16 -16 -16 -16 -16 -16 -16 -17 -18 -16 -16
-8 -8 -9 -9 -9 -8 -9 -9 -9 -9 -9 -9 -9 -9 -9 -9 -9 -9 -8 -8 -9 -9 -9 -9 -11 -11 -11 -13 -14 -14 -14 -15 -16 -16 -16 -16 -16 -17 -17 -17 -18 -18 -16

GFSGL_850_dewp_027.txt.gz
Dewpoint
-2 -2 -4 -4 -6 -6 -5 -6 -7 -6 -5 -6 -6 -6 -6 -6 -6 -4 -4 -4 -3 -3 -5 -6 -5 -5 -6 -7 -8 -11 -11 -12 -12 -12 -13 -12 -10 -10 -10 -10 -10 -10 -11
0 -2 -3 -5 -7 -6 -6 -7 -6 -5 -5 -5 -7 -6 -6 -7 -5 -5 -4 -4 -4 -4 -5 -5 -6 -6 -7 -10 -11 -11 -12 -12 -12 -12 -12 -10 -10 -10 -10 -11 -10 -10 -10
0 -2 -6 -7 -6 -6 -6 -7 -6 -5 -5 -6 -6 -6 -6 -6 -6 -5 -5 -4 -5 -5 -5 -6 -7 -8 -10 -11 -11 -11 -12 -12 -11 -10 -10 -10 -11 -11 -11 -10 -11 -11 -10
-2 -5 -8 -8 -6 -6 -7 -7 -6 -5 -5 -6 -6 -6 -6 -5 -6 -5 -5 -5 -5 -6 -6 -8 -10 -10 -11 -10 -11 -11 -11 -11 -11 -10 -11 -10 -11 -10 -10 -10 -9 -10 -11
-3 -6 -8 -7 -6 -6 -7 -6 -5 -5 -6 -6 -6 -7 -5 -5 -6 -7 -6 -6 -7 -7 -9 -11 -11 -12 -12 -12 -11 -11 -11 -11 -11 -11 -11 -11 -10 -11 -11 -12 -11 -11 -11
-4 -6 -7 -7 -6 -8 -8 -6 -5 -7 -7 -6 -6 -6 -5 -5 -6 -8 -8 -8 -9 -10 -11 -11 -11 -12 -12 -12 -11 -11 -11 -11 -11 -11 -11 -12 -12 -11 -9 -9 -10 -10 -12
-6 -7 -7 -7 -7 -8 -8 -8 -8 -7 -6 -6 -6 -6 -5 -5 -7 -9 -8 -10 -10 -10 -10 -11 -11 -12 -11 -11 -11 -12 -12 -11 -11 -11 -10 -10 -10 -11 -11 -10 -11 -10 -10
-7 -7 -7 -8 -9 -8 -8 -8 -8 -7 -6 -7 -6 -5 -5 -5 -6 -9 -9 -11 -9 -9 -9 -10 -11 -11 -12 -13 -16 -12 -12 -13 -13 -12 -11 -11 -12 -12 -12 -11 -10 -11 -11
-7 -8 -9 -10 -8 -8 -8 -9 -8 -7 -7 -6 -7 -6 -5 -5 -6 -9 -9 -10 -9 -9 -9 -10 -10 -12 -12 -21 -23 -12 -12 -13 -13 -13 -13 -13 -13 -13 -13 -10 -11 -10 -10
-8 -9 -10 -9 -9 -9 -8 -8 -7 -6 -7 -7 -7 -6 -6 -6 -7 -8 -9 -10 -9 -9 -9 -10 -11 -11 -14 -28 -27 -17 -12 -12 -13 -13 -12 -11 -11 -10 -10 -10 -10 -10 -9
-9 -19 -19 -10 -9 -8 -8 -7 -6 -6 -6 -5 -6 -6 -6 -7 -7 -7 -9 -10 -10 -10 -10 -10 -10 -11 -20 -26 -28 -21 -14 -22 -15 -12 -12 -11 -11 -10 -10 -10 -10 -9 -9
-19 -16 -9 -8 -7 -7 -7 -6 -6 -6 -5 -5 -5 -6 -6 -7 -8 -9 -10 -10 -12 -13 -11 -10 -11 -17 -20 -24 -22 -20 -22 -16 -12 -12 -12 -11 -11 -12 -11 -10 -10 -9 -10
-15 -8 -7 -7 -6 -6 -6 -7 -7 -6 -5 -5 -6 -6 -6 -8 -7 -7 -9 -10 -11 -13 -13 -13 -18 -18 -17 -17 -13 -14 -14 -12 -13 -13 -12 -12 -12 -12 -11 -10 -11 -9 -8
-7 -7 -7 -6 -6 -6 -6 -7 -7 -6 -6 -6 -6 -6 -6 -7 -7 -8 -8 -10 -10 -10 -10 -11 -15 -13 -12 -12 -12 -12 -12 -12 -14 -13 -13 -12 -12 -12 -12 -11 -11 -10 -9
-8 -7 -7 -7 -6 -6 -7 -7 -6 -6 -6 -6 -6 -6 -7 -8 -8 -9 -9 -9 -9 -10 -12 -15 -11 -10 -11 -11 -12 -12 -12 -12 -13 -14 -13 -13 -13 -12 -12 -11 -11 -11 -10
-13 -12 -9 -6 -6 -6 -6 -6 -6 -6 -7 -7 -8 -9 -10 -10 -10 -11 -10 -10 -11 -12 -13 -11 -10 -11 -11 -11 -12 -12 -12 -12 -12 -13 -13 -13 -13 -13 -12 -12 -11 -11 -10
-14 -12 -10 -6 -6 -6 -6 -6 -7 -7 -6 -7 -8 -9 -8 -8 -9 -11 -11 -11 -11 -11 -12 -11 -10 -10 -11 -11 -12 -12 -12 -12 -14 -13 -13 -13 -13 -13 -13 -12 -12 -11 -11
-11 -7 -6 -5 -5 -6 -7 -7 -7 -6 -7 -8 -7 -7 -8 -8 -9 -10 -11 -11 -11 -11 -11 -11 -10 -10 -11 -11 -11 -12 -12 -13 -13 -13 -13 -13 -14 -13 -13 -13 -13 -12 -12
-6 -5 -5 -6 -6 -7 -7 -7 -7 -7 -8 -8 -7 -7 -8 -9 -9 -9 -10 -10 -10 -10 -10 -10 -10 -10 -11 -11 -11 -12 -12 -13 -13 -14 -14 -13 -14 -14 -13 -13 -13 -13 -13
-5 -5 -6 -6 -7 -7 -7 -7 -7 -7 -8 -8 -8 -7 -8 -8 -9 -9 -10 -10 -10 -10 -10 -10 -10 -10 -10 -11 -11 -12 -12 -13 -13 -13 -13 -14 -14 -14 -14 -14 -14 -13 -13
-5 -5 -5 -5 -6 -6 -7 -7 -8 -8 -8 -8 -8 -7 -8 -8 -8 -9 -9 -10 -10 -10 -10 -10 -10 -11 -10 -11 -12 -12 -12 -13 -13 -13 -14 -14 -14 -14 -14 -14 -14 -14 -14
-5 -5 -6 -6 -6 -7 -7 -7 -7 -9 -9 -8 -8 -7 -8 -8 -8 -9 -9 -9 -9 -10 -10 -10 -10 -10 -10 -11 -11 -12 -12 -12 -13 -14 -14 -14 -15 -14 -14 -14 -14 -14 -14
-5 -5 -6 -6 -7 -8 -8 -7 -7 -9 -9 -9 -8 -8 -7 -8 -8 -8 -8 -9 -8 -8 -9 -9 -10 -10 -10 -11 -11 -12 -12 -12 -13 -13 -14 -14 -15 -14 -14 -14 -14 -14 -14
-6 -6 -6 -7 -7 -9 -9 -8 -8 -8 -8 -9 -8 -8 -8 -8 -8 -8 -8 -8 -8 -8 -8 -9 -9 -10 -11 -11 -11 -12 -15 -14 -14 -16 -17 -16 -15 -15 -15 -15 -14 -14 -14
-6 -6 -7 -7 -8 -9 -9 -8 -8 -8 -8 -8 -8 -8 -8 -8 -8 -9 -9 -8 -8 -8 -8 -8 -9 -9 -9 -11 -11 -13 -14 -15 -15 -15 -17 -17 -16 -16 -16 -15 -15 -15 -15
-7 -7 -7 -8 -8 -8 -9 -9 -8 -8 -9 -9 -9 -9 -9 -10 -10 -10 -10 -10 -10 -10 -10 -9 -9 -9 -9 -9 -10 -11 -12 -14 -14 -15 -16 -17 -16 -15 -15 -15 -15 -15 -15

GFSGL_850_dewp_030.txt.gz
Dewpoint
1 0 -2 -1 -2 -4 -4 -5 -5 -6 -6 -5 -5 -5 -6 -6 -6 -6 -5 -8 -5 -5 -6 -4 -4 -4 -5 -5 -7 -8 -10 -10 -10 -11 -12 -12 -11 -11 -13 -12 -12 -13 -14
0 -0 -1 -2 -2 -5 -6 -5 -6 -7 -6 -5 -5 -6 -6 -6 -6 -6 -6 -4 -8 -4 -4 -4 -5 -6 -7 -8 -9 -11 -11 -11 -11 -11 -10 -10 -10 -12 -11 -11 -11 -11 -10
-1 -1 -1 -2 -5 -6 -6 -6 -6 -7 -6 -5 -5 -6 -6 -6 -6 -6 -5 -6 -6 -5 -5 -6 -7 -7 -9 -10 -10 -10 -13 -12 -11 -11 -11 -12 -12 -12 -12 -12 -12 -11 -10
-1 -0 -3 -3 -4 -6 -6 -5 -7 -6 -6 -5 -5 -6 -6 -6 -5 -6 -5 -6 -6 -6 -7 -7 -8 -10 -11 -11 -12 -13 -13 -12 -12 -12 -12 -13 -13 -12 -12 -12 -10 -11 -11
-1 -1 -4 -4 -7 -4 -5 -6 -7 -6 -5 -5 -6 -6 -6 -6 -4 -6 -6 -9 -7 -7 -9 -10 -11 -11 -12 -12 -12 -12 -11 -11 -12 -13 -13 -13 -12 -12 -12 -10 -10 -10 -13
-0 -2 -5 -2 -5 -6 -6 -7 -8 -6 -6 -7 -6 -6 -6 -5 -6 -6 -7 -9 -9 -12 -10 -10 -10 -11 -12 -12 -11 -11 -11 -12 -13 -12 -12 -11 -11 -10 -10 -10 -12 -13 -11
-1 -3 -3 -5 -6 -6 -7 -8 -8 -8 -8 -7 -6 -6 -6 -5 -5 -6 -6 -10 -11 -11 -9 -10 -10 -10 -11 -11 -11 -13 -21 -14 -12 -12 -11 -10 -11 -11 -12 -14 -14 -12 -12
-1 -4 -4 -6 -7 -8 -8 -10 -9 -8 -8 -7 -6 -6 -6 -4 -5 -6 -6 -8 -11 -11 -9 -9 -9 -10 -10 -13 -14 -22 -26 -19 -13 -13 -12 -13 -13 -14 -14 -13 -13 -12 -12
-3 -4 -4 -5 -8 -8 -9 -8 -8 -7 -7 -7 -6 -6 -7 -5 -5 -6 -6 -8 -9 -11 -10 -10 -9 -10 -11 -11 -14 -25 -27 -23 -14 -13 -16 -16 -14 -12 -11 -10 -11 -10 -11
-4 -4 -6 -4 -11 -12 -9 -8 -6 -6 -6 -6 -6 -6 -6 -6 -5 -6 -6 -8 -9 -11 -10 -10 -11 -10 -10 -12 -17 -25 -26 -22 -25 -20 -15 -13 -13 -11 -11 -10 -10 -10 -9
-3 -4 -7 -6 -12 -8 -6 -6 -6 -6 -6 -6 -6 -6 -7 -6 -7 -6 -8 -9 -10 -10 -13 -13 -10 -10 -11 -16 -19 -21 -20 -18 -16 -15 -14 -14 -12 -12 -12 -12 -11 -10 -10
-6 -5 -7 -12 -10 -5 -5 -6 -6 -7 -6 -5 -5 -5 -6 -6 -7 -8 -9 -9 -10 -11 -13 -14 -12 -13 -17 -18 -17 -16 -14 -14 -13 -14 -15 -13 -13 -13 -12 -12 -11 -11 -10
-6 -11 -13 -11 -6 -6 -6 -6 -7 -7 -6 -8 -6 -5 -6 -7 -7 -7 -7 -7 -9 -10 -12 -13 -13 -15 -15 -14 -14 -12 -12 -13 -12 -14 -14 -14 -14 -13 -13 -12 -12 -11 -10
-11 -13 -8 -6 -6 -6 -9 -7 -6 -7 -6 -6 -7 -7 -7 -6 -6 -7 -7 -8 -8 -10 -11 -11 -12 -14 -11 -11 -11 -11 -12 -13 -12 -12 -13 -15 -14 -14 -13 -13 -12 -12 -11
-11 -12 -11 -11 -12 -11 -6 -6 -6 -6 -6 -7 -7 -7 -7 -6 -7 -7 -8 -10 -8 -9 -10 -10 -12 -13 -10 -12 -12 -12 -12 -13 -12 -12 -14 -14 -13 -14 -14 -13 -12 -12 -11
-14 -14 -13 -12 -10 -8 -6 -6 -7 -7 -7 -7 -7 -7 -7 -8 -8 -9 -10 -10 -10 -9 -10 -11 -12 -12 -11 -11 -12 -12 -12 -13 -12 -13 -14 -14 -14 -14 -15 -13 -12 -13 -12
-13 -12 -11 -8 -7 -6 -6 -7 -6 -8 -7 -8 -6 -6 -7 -7 -7 -8 -8 -9 -11 -11 -11 -11 -12 -11 -11 -11 -12 -11 -12 -12 -13 -13 -13 -14 -14 -14 -14 -14 -14 -13 -14
-10 -9 -6 -5 -5 -6 -7 -7 -7 -8 -8 -8 -9 -8 -8 -7 -7 -9 -9 -9 -10 -10 -11 -11 -11 -11 -12 -11 -12 -11 -11 -12 -13 -13 -14 -14 -13 -14 -14 -14 -15 -13 -14
-6 -5 -5 -5 -6 -6 -6 -7 -7 -8 -8 -9 -7 -8 -8 -7 -7 -8 -8 -9 -10 -10 -10 -11 -11 -11 -10 -10 -11 -12 -12 -12 -13 -14 -14 -14 -13 -14 -14 -14 -14 -15 -14
-6 -6 -6 -6 -6 -6 -5 -6 -6 -6 -7 -8 -9 -8 -8 -7 -7 -9 -9 -9 -9 -10 -11 -11 -10 -11 -10 -9 -10 -10 -11 -12 -12 -13 -13 -13 -14 -14 -14 -14 -14 -14 -15
-5 -5 -6 -5 -5 -7 -7 -7 -7 -7 -6 -7 -7 -9 -8 -8 -7 -8 -9 -9 -8 -9 -9 -10 -10 -10 -11 -11 -10 -10 -11 -11 -12 -12 -13 -14 -14 -15 -14 -14 -14 -14 -15
-6 -6 -7 -6 -5 -5 -7 -7 -9 -8 -8 -7 -7 -9 -8 -8 -7 -7 -8 -9 -9 -8 -9 -8 -9 -10 -10 -10 -11 -11 -11 -11 -12 -12 -13 -15 -16 -15 -14 -14 -14 -14 -14
-6 -6 -6 -6 -7 -7 -6 -8 -9 -8 -8 -8 -8 -8 -8 -8 -7 -7 -7 -8 -8 -8 -9 -9 -9 -9 -9 -10 -10 -11 -11 -11 -12 -12 -13 -15 -17 -16 -14 -15 -14 -15 -14
-11 -10 -9 -8 -8 -6 -7 -8 -9 -8 -9 -8 -8 -8 -8 -8 -8 -8 -7 -7 -8 -8 -8 -8 -8 -8 -9 -9 -9 -10 -11 -11 -11 -13 -14 -15 -17 -17 -16 -15 -15 -15 -15
-12 -12 -10 -9 -8 -7 -7 -7 -8 -8 -8 -8 -8 -8 -8 -9 -9 -9 -9 -9 -9 -9 -10 -10 -9 -9 -9 -9 -9 -9 -10 -10 -11 -13 -15 -15 -17 -17 -17 -16 -16 -16 -15
-10 -9 -9 -8 -9 -9 -7 -8 -9 -9 -9 -10 -10 -10 -10 -10 -11 -14 -15 -13 -11 -10 -9 -9 -10 -10 -9 -9 -9 -9 -9 -10 -11 -12 -14 -15 -16 -18 -17 -16 -15 -15 -16

GFSGL_850_dewp_033.txt.gz
Dewpoint
4 3 1 0 -2 -6 -4 -4 -5 -4 -5 -7 -6 -6 -5 -5 -7 -6 -6 -6 -6 -8 -8 -5 -5 -4 -5 -5 -6 -7 -8 -9 -10 -11 -12 -13 -14 -13 -13 -13 -13 -13 -13
3 1 0 1 -3 -2 -3 -4 -2 -5 -6 -6 -6 -5 -5 -5 -7 -6 -6 -6 -6 -7 -6 -5 -5 -5 -7 -8 -9 -10 -11 -11 -11 -14 -17 -16 -14 -14 -14 -14 -14 -13 -12
2 1 1 -0 -1 -3 -3 -2 -4 -6 -6 -6 -5 -5 -5 -5 -6 -6 -6 -5 -7 -7 -6 -6 -7 -8 -8 -9 -11 -11 -11 -13 -16 -14 -15 -16 -15 -15 -14 -14 -13 -14 -12
1 1 0 -0 -2 -2 -1 -4 -4 -4 -6 -6 -6 -5 -5 -7 -6 -6 -6 -5 -6 -8 -9 -7 -8 -9 -10 -11 -11 -12 -13 -14 -14 -14 -16 -14 -13 -14 -12 -11 -11 -12 -14
2 1 0 -2 -2 -0 -3 -3 -2 -5 -7 -8 -6 -6 -7 -6 -6 -6 -6 -6 -6 -7 -10 -10 -10 -10 -11 -11 -12 -12 -12 -12 -12 -15 -14 -12 -13 -12 -11 -11 -12 -14 -16
3 0 -0 -2 0 -2 -3 -1 -5 -10 -10 -7 -7 -7 -7 -6 -6 -6 -6 -6 -6 -9 -13 -15 -10 -10 -11 -11 -11 -11 -11 -12 -17 -20 -12 -12 -11 -11 -12 -13 -14 -15 -15
1 0 -2 -2 -0 -3 -2 -3 -6 -10 -9 -8 -8 -7 -6 -6 -6 -6 -5 -6 -6 -8 -11 -13 -10 -9 -10 -11 -11 -11 -15 -19 -26 -19 -12 -11 -11 -12 -13 -14 -13 -11 -12
0 -2 -2 -3 -3 -4 -3 -7 -9 -10 -10 -9 -7 -7 -6 -6 -6 -6 -5 -6 -6 -7 -9 -12 -9 -9 -10 -11 -12 -13 -16 -21 -25 -18 -12 -12 -14 -14 -12 -11 -11 -10 -11
-2 -3 -3 -4 -4 -3 -5 -8 -9 -9 -7 -6 -6 -6 -6 -6 -6 -6 -5 -5 -6 -7 -9 -12 -11 -10 -10 -12 -12 -13 -18 -21 -22 -22 -18 -15 -14 -13 -11 -11 -11 -11 -11
-3 -3 -3 -2 -4 -5 -5 -8 -9 -6 -8 -7 -5 -6 -6 -6 -6 -6 -6 -6 -6 -8 -10 -11 -12 -11 -12 -13 -13 -17 -18 -18 -17 -16 -19 -18 -14 -13 -12 -12 -12 -11 -11
-2 -2 -2 -2 -4 -9 -10 -7 -5 -6 -7 -6 -7 -6 -6 -5 -5 -6 -6 -7 -7 -8 -10 -12 -12 -13 -14 -15 -17 -18 -16 -15 -14 -14 -15 -16 -15 -14 -13 -13 -12 -11 -11
-2 -1 -2 -6 -8 -10 -10 -8 -6 -6 -6 -6 -7 -7 -7 -6 -6 -6 -7 -9 -8 -9 -9 -11 -12 -13 -15 -16 -16 -15 -14 -13 -13 -14 -13 -14 -15 -15 -14 -13 -13 -12 -11
-1 -5 -7 -9 -11 -13 -8 -6 -6 -6 -7 -6 -6 -6 -7 -7 -7 -6 -6 -7 -7 -7 -9 -9 -11 -13 -14 -16 -13 -12 -12 -12 -13 -13 -12 -13 -14 -14 -14 -15 -14 -12 -13
-7 -9 -11 -14 -12 -8 -7 -8 -9 -7 -6 -6 -6 -6 -7 -8 -7 -6 -6 -7 -7 -8 -10 -9 -10 -11 -12 -13 -12 -12 -11 -12 -13 -12 -13 -13 -14 -14 -14 -15 -13 -13 -13
-12 -15 -15 -14 -14 -13 -12 -10 -8 -6 -6 -6 -8 -7 -7 -7 -7 -7 -7 -7 -7 -8 -9 -10 -10 -10 -11 -13 -11 -12 -12 -12 -12 -13 -12 -13 -14 -14 -14 -15 -14 -13 -13
-14 -14 -14 -13 -12 -10 -9 -9 -7 -7 -9 -8 -8 -7 -7 -6 -6 -6 -7 -8 -8 -9 -9 -9 -9 -10 -11 -12 -11 -11 -12 -11 -12 -12 -12 -14 -14 -14 -14 -14 -15 -14 -14
-12 -12 -11 -10 -9 -8 -7 -7 -7 -8 -8 -9 -9 -9 -8 -8 -7 -7 -6 -7 -8 -8 -9 -10 -11 -12 -12 -12 -10 -11 -12 -11 -12 -12 -12 -15 -14 -14 -14 -14 -14 -15 -15
-8 -8 -8 -7 -6 -5 -6 -6 -6 -7 -7 -8 -8 -9 -10 -8 -8 -7 -7 -7 -8 -8 -9 -11 -12 -12 -12 -12 -11 -11 -11 -12 -12 -12 -14 -15 -15 -14 -15 -14 -14 -15 -15
-7 -6 -5 -5 -5 -5 -5 -5 -5 -5 -6 -7 -8 -8 -8 -9 -10 -8 -8 -7 -9 -9 -10 -10 -11 -12 -12 -11 -11 -10 -10 -10 -12 -12 -14 -14 -14 -14 -15 -14 -14 -14 -15
-5 -5 -5 -5 -5 -5 -6 -6 -5 -5 -7 -7 -8 -8 -8 -7 -9 -9 -8 -7 -8 -9 -10 -10 -11 -12 -12 -11 -11 -10 -9 -10 -10 -11 -14 -14 -13 -14 -14 -15 -15 -14 -15
-8 -9 -8 -7 -7 -6 -6 -6 -6 -6 -6 -8 -8 -9 -8 -7 -8 -8 -8 -7 -8 -8 -9 -9 -9 -9 -10 -10 -10 -11 -11 -10 -10 -12 -14 -13 -13 -16 -15 -15 -14 -14 -14
-13 -11 -12 -14 -15 -13 -9 -7 -6 -7 -7 -7 -9 -9 -8 -7 -8 -8 -8 -8 -7 -7 -8 -9 -9 -9 -9 -9 -9 -10 -10 -10 -11 -11 -14 -13 -13 -16 -16 -16 -15 -14 -15
-17 -16 -12 -11 -11 -12 -11 -10 -9 -8 -7 -8 -9 -9 -8 -8 -8 -8 -8 -8 -7 -7 -8 -8 -8 -9 -9 -9 -9 -9 -9 -10 -10 -11 -12 -13 -14 -14 -17 -16 -15 -15 -15
-13 -12 -12 -11 -10 -9 -9 -9 -9 -7 -8 -8 -8 -8 -7 -8 -8 -8 -8 -8 -8 -8 -8 -8 -8 -8 -8 -8 -9 -9 -9 -9 -9 -10 -11 -12 -14 -14 -17 -17 -16 -15 -15
-15 -14 -13 -13 -12 -11 -10 -9 -9 -8 -8 -8 -9 -9 -9 -9 -10 -10 -10 -10 -9 -9 -9 -9 -8 -9 -10 -10 -10 -9 -9 -9 -9 -10 -10 -11 -13 -14 -17 -18 -17 -16 -16
-16 -16 -15 -15 -15 -14 -13 -12 -12 -12 -12 -11 -11 -11 -11 -11 -11 -11 -11 -12 -16 -18 -18 -16 -13 -10 -10 -8 -10 -10 -10 -9 -9 -9 -10 -11 -13 -14 -17 -18 -17 -16 -16

GFSGL_850_dewp_036.txt.gz
Dewpoint
7 6 6 5 4 2 -1 -2 -4 -5 -4 -1 -3 -6 -6 -6 -5 -5 -6 -7 -6 -6 -6 -8 -7 -5 -6 -6 -7 -7 -8 -9 -11 -12 -13 -16 -19 -20 -19 -17 -15 -15 -14
6 5 5 4 3 1 -2 -5 -1 -2 -1 -5 -6 -6 -6 -5 -5 -5 -7 -7 -6 -6 -6 -7 -8 -6 -6 -8 -8 -9 -11 -11 -11 -13 -17 -18 -20 -18 -16 -15 -15 -15 -15
5 5 4 3 2 -0 -2 -1 1 -0 -4 -6 -6 -5 -5 -5 -5 -6 -7 -6 -6 -5 -6 -7 -9 -7 -8 -8 -9 -11 -11 -12 -13 -15 -15 -17 -21 -17 -16 -15 -14 -14 -14
4 4 4 3 1 -0 -1 -1 1 -5 -3 -4 -5 -6 -7 -5 -6 -7 -6 -5 -6 -5 -6 -7 -9 -8 -9 -10 -10 -11 -11 -12 -13 -13 -15 -22 -21 -16 -14 -13 -13 -14 -16
4 3 2 1 -1 -2 -1 -0 -4 -2 -4 -4 -8 -9 -8 -7 -10 -7 -6 -6 -6 -5 -5 -7 -11 -15 -13 -10 -10 -11 -11 -12 -11 -15 -20 -24 -18 -14 -12 -12 -13 -14 -16
4 2 1 -1 -2 -1 -1 -1 -1 -3 -1 -6 -7 -8 -9 -9 -7 -6 -6 -5 -5 -5 -5 -7 -9 -13 -13 -12 -11 -11 -11 -11 -14 -18 -24 -23 -15 -12 -12 -12 -13 -13 -12
3 1 0 -2 -2 -1 0 -2 -2 -2 -3 -7 -6 -9 -9 -7 -7 -6 -6 -6 -6 -5 -6 -7 -8 -10 -13 -11 -11 -11 -10 -12 -15 -21 -24 -20 -16 -14 -15 -13 -12 -12 -11
1 0 -1 -2 -1 -2 -2 -2 -2 -2 -4 -7 -9 -9 -8 -7 -6 -6 -6 -6 -5 -5 -5 -6 -7 -10 -12 -11 -11 -11 -12 -14 -18 -20 -21 -20 -17 -14 -13 -12 -11 -11 -12
0 -1 -2 -2 -3 -2 -2 -2 -1 -7 -9 -9 -8 -9 -7 -6 -6 -6 -5 -5 -5 -5 -6 -6 -8 -11 -12 -12 -11 -12 -15 -19 -19 -17 -16 -17 -17 -14 -12 -12 -12 -12 -13
-2 -3 -3 -3 -2 -0 -1 -5 -9 -8 -8 -10 -8 -7 -8 -7 -6 -5 -5 -5 -5 -6 -7 -7 -10 -12 -12 -12 -13 -14 -18 -19 -17 -16 -16 -15 -17 -17 -15 -13 -12 -12 -12
-3 -3 -2 -0 -0 -4 -8 -9 -9 -9 -8 -8 -7 -6 -6 -8 -7 -7 -6 -5 -6 -6 -7 -8 -10 -11 -12 -13 -13 -17 -18 -17 -15 -15 -14 -14 -14 -14 -15 -15 -14 -13 -12
-2 -0 -0 -3 -7 -8 -9 -11 -14 -11 -8 -7 -6 -6 -7 -6 -6 -7 -7 -6 -6 -6 -8 -9 -8 -10 -12 -13 -15 -16 -15 -14 -14 -13 -13 -14 -13 -13 -15 -15 -16 -14 -13
-0 -2 -6 -8 -9 -11 -14 -13 -13 -12 -9 -10 -9 -7 -8 -7 -7 -7 -7 -6 -6 -7 -8 -7 -7 -9 -10 -13 -12 -14 -13 -13 -12 -12 -13 -13 -13 -13 -15 -15 -16 -13 -13
-8 -10 -11 -14 -16 -16 -15 -14 -13 -13 -11 -10 -8 -7 -7 -8 -8 -8 -7 -7 -8 -6 -7 -7 -8 -9 -9 -11 -10 -12 -12 -12 -12 -12 -12 -12 -12 -14 -15 -15 -15 -15 -15
-16 -16 -16 -15 -15 -14 -14 -13 -12 -12 -10 -9 -9 -10 -10 -11 -10 -7 -6 -7 -7 -8 -7 -8 -8 -9 -10 -10 -10 -11 -12 -11 -12 -12 -11 -12 -12 -15 -15 -15 -14 -15 -15
-14 -13 -13 -13 -12 -11 -10 -10 -9 -9 -9 -9 -8 -8 -10 -10 -10 -9 -7 -8 -7 -7 -7 -8 -9 -9 -10 -10 -10 -11 -12 -11 -12 -12 -11 -11 -12 -15 -15 -15 -14 -15 -15
-9 -9 -8 -7 -7 -7 -6 -5 -5 -7 -7 -7 -7 -7 -8 -8 -10 -10 -8 -8 -8 -7 -8 -8 -9 -9 -9 -10 -12 -12 -12 -12 -11 -12 -11 -11 -13 -16 -16 -15 -15 -14 -16
-8 -7 -6 -5 -5 -5 -5 -5 -5 -5 -5 -5 -5 -6 -8 -8 -8 -9 -9 -7 -7 -8 -8 -8 -9 -9 -10 -11 -12 -12 -12 -12 -11 -11 -11 -11 -13 -15 -16 -15 -15 -14 -15
-6 -5 -6 -6 -6 -7 -7 -6 -6 -6 -6 -6 -7 -7 -9 -8 -9 -8 -7 -8 -8 -8 -7 -8 -8 -9 -10 -11 -12 -12 -12 -12 -11 -10 -10 -11 -12 -14 -15 -15 -15 -15 -15
-16 -19 -18 -17 -17 -18 -19 -18 -17 -11 -7 -7 -6 -7 -6 -8 -10 -10 -8 -9 -8 -8 -8 -8 -8 -9 -10 -10 -12 -11 -11 -11 -10 -10 -10 -11 -11 -14 -14 -15 -15 -15 -15
-26 -24 -22 -21 -19 -15 -13 -12 -10 -11 -11 -11 -7 -6 -6 -7 -9 -9 -8 -8 -8 -8 -8 -8 -8 -9 -9 -9 -9 -11 -11 -11 -11 -11 -10 -10 -12 -15 -14 -16 -16 -15 -15
-24 -22 -19 -15 -15 -14 -11 -11 -10 -10 -9 -9 -9 -9 -9 -7 -9 -8 -8 -8 -8 -8 -8 -8 -8 -8 -8 -9 -9 -9 -9 -10 -10 -11 -10 -10 -11 -14 -14 -15 -16 -15 -15
-22 -20 -18 -16 -15 -15 -14 -13 -12 -11 -10 -9 -8 -7 -8 -9 -8 -8 -8 -8 -8 -9 -9 -9 -8 -8 -8 -9 -9 -9 -9 -9 -9 -9 -10 -10 -10 -13 -14 -14 -16 -16 -16
-20 -20 -18 -17 -17 -16 -15 -14 -13 -12 -11 -10 -10 -10 -9 -9 -9 -9 -9 -9 -9 -8 -8 -9 -9 -8 -9 -9 -9 -9 -8 -9 -9 -9 -9 -10 -10 -11 -13 -14 -16 -17 -16
-20 -19 -18 -18 -17 -17 -16 -16 -15 -14 -13 -13 -13 -13 -13 -12 -11 -11 -11 -11 -12 -12 -11 -10 -9 -9 -9 -9 -9 -9 -11 -10 -9 -9 -9 -9 -10 -11 -12 -14 -16 -17 -16
-20 -19 -18 -18 -18 -18 -17 -17 -17 -16 -15 -15 -15 -14 -14 -14 -13 -13 -13 -13 -14 -14 -14 -13 -14 -15 -16 -15 -11 -10 -10 -10 -10 -10 -9 -9 -10 -11 -12 -14 -16 -17 -16

GFSGL_850_dewp_039.txt.gz
Dewpoint
9 8 8 8 7 7 6 4 3 1 2 1 -3 -1 -3 -5 -5 -5 -5 -5 -6 -7 -6 -6 -6 -8 -9 -9 -7 -8 -8 -9 -10 -12 -13 -14 -17 -19 -21 -21 -18 -17 -16
7 8 8 7 6 5 4 3 1 1 -3 -4 -2 -4 -5 -5 -5 -5 -5 -6 -8 -6 -6 -6 -6 -7 -8 -8 -7 -8 -9 -10 -11 -11 -14 -15 -18 -20 -22 -20 -17 -16 -15
6 6 7 6 6 4 2 -2 -3 -4 -4 -2 -1 -3 -5 -5 -5 -5 -5 -9 -7 -6 -6 -5 -5 -7 -8 -9 -8 -9 -10 -11 -11 -12 -13 -16 -19 -22 -22 -19 -16 -16 -19
6 7 6 5 4 2 -0 -1 -3 -2 -0 -1 -3 -4 -4 -6 -6 -6 -9 -9 -6 -6 -5 -4 -5 -6 -10 -12 -14 -11 -10 -11 -11 -12 -13 -17 -20 -22 -21 -15 -18 -18 -21
6 6 6 5 3 0 -1 -3 -2 -1 -1 -1 -3 -3 -4 -4 -5 -9 -7 -6 -6 -6 -4 -4 -5 -6 -8 -10 -13 -11 -11 -11 -11 -12 -14 -17 -21 -22 -17 -16 -18 -18 -15
7 6 5 2 0 -0 -3 -2 -0 -1 -2 -3 -1 -1 -2 -5 -7 -8 -6 -6 -6 -5 -5 -5 -5 -6 -7 -8 -11 -11 -11 -11 -11 -12 -15 -19 -22 -19 -19 -17 -15 -13 -12
6 5 4 1 0 -2 -1 -1 -0 -2 -2 -0 -1 -5 -5 -8 -9 -9 -7 -6 -6 -6 -5 -5 -5 -6 -6 -8 -11 -11 -10 -11 -11 -13 -17 -20 -19 -18 -17 -17 -14 -12 -11
5 3 2 1 -0 -1 -1 -1 -1 0 -1 -3 -4 -7 -8 -11 -11 -9 -6 -6 -5 -5 -5 -5 -5 -6 -7 -9 -10 -11 -11 -11 -13 -16 -19 -17 -16 -18 -17 -14 -12 -12 -13
3 1 0 -1 -1 -2 -2 -0 -1 -1 -4 -7 -8 -10 -12 -12 -11 -10 -7 -6 -5 -5 -5 -5 -6 -7 -8 -12 -11 -11 -11 -13 -15 -18 -16 -15 -15 -17 -16 -16 -15 -13 -13
0 -0 -2 -2 -2 -1 -0 -0 -4 -7 -8 -8 -11 -11 -11 -10 -8 -9 -8 -8 -7 -5 -5 -6 -6 -7 -8 -11 -12 -11 -13 -14 -17 -17 -15 -15 -15 -15 -15 -15 -15 -14 -13
-3 -2 -0 -0 -1 -0 -3 -7 -8 -9 -9 -12 -12 -13 -13 -10 -8 -8 -7 -6 -7 -6 -6 -6 -7 -7 -9 -9 -11 -13 -13 -16 -16 -15 -14 -15 -15 -15 -15 -15 -15 -15 -15
-0 -1 -1 -0 -2 -5 -7 -9 -11 -13 -13 -14 -14 -16 -15 -13 -9 -8 -7 -7 -7 -6 -6 -7 -6 -7 -8 -8 -10 -12 -14 -14 -14 -13 -13 -14 -14 -14 -13 -15 -15 -15 -14
-1 -3 -5 -7 -8 -10 -12 -14 -14 -14 -14 -14 -14 -14 -14 -12 -11 -10 -9 -8 -7 -7 -7 -7 -7 -7 -7 -8 -9 -11 -12 -12 -13 -12 -13 -13 -13 -13 -13 -14 -16 -15 -16
-11 -12 -13 -14 -15 -15 -15 -14 -14 -14 -13 -12 -12 -12 -12 -11 -10 -11 -10 -9 -7 -7 -7 -7 -7 -7 -7 -7 -9 -9 -10 -10 -12 -12 -12 -13 -12 -12 -12 -14 -16 -15 -16
-14 -13 -13 -12 -12 -13 -12 -11 -10 -10 -9 -8 -9 -9 -8 -9 -10 -9 -10 -10 -9 -8 -7 -7 -7 -8 -9 -9 -9 -9 -9 -10 -12 -11 -12 -12 -12 -12 -12 -15 -15 -15 -15
-12 -12 -12 -11 -11 -10 -9 -10 -9 -7 -6 -5 -5 -5 -5 -6 -7 -7 -7 -9 -9 -8 -7 -7 -9 -7 -7 -8 -9 -9 -10 -10 -11 -11 -12 -12 -12 -11 -13 -17 -16 -15 -15
-11 -10 -10 -9 -8 -7 -6 -6 -6 -8 -7 -7 -7 -7 -7 -6 -6 -6 -6 -7 -9 -8 -7 -8 -9 -7 -7 -8 -9 -9 -10 -11 -12 -11 -12 -12 -11 -11 -13 -16 -16 -16 -15
-8 -8 -9 -11 -13 -14 -13 -14 -15 -15 -15 -18 -15 -12 -9 -9 -8 -6 -6 -7 -8 -8 -9 -9 -8 -8 -8 -8 -9 -9 -11 -12 -12 -11 -12 -11 -11 -11 -12 -14 -16 -16 -15
-23 -27 -29 -29 -28 -26 -25 -23 -21 -18 -14 -13 -13 -14 -14 -11 -8 -7 -6 -7 -9 -8 -7 -9 -9 -8 -8 -8 -8 -9 -10 -12 -12 -11 -12 -11 -11 -11 -11 -13 -17 -17 -16
-31 -31 -31 -29 -27 -25 -22 -19 -15 -13 -12 -11 -11 -11 -11 -11 -9 -8 -7 -8 -9 -8 -8 -9 -8 -8 -8 -8 -8 -9 -11 -11 -12 -12 -11 -11 -11 -11 -11 -12 -16 -17 -16
-31 -30 -29 -27 -25 -21 -18 -16 -14 -13 -13 -13 -12 -11 -10 -10 -9 -8 -10 -7 -8 -8 -8 -8 -8 -8 -8 -8 -8 -9 -10 -12 -12 -11 -11 -11 -10 -11 -11 -13 -15 -17 -17
-28 -27 -25 -23 -21 -20 -19 -17 -15 -14 -13 -13 -13 -12 -10 -10 -9 -8 -8 -8 -8 -8 -8 -9 -8 -8 -8 -8 -8 -9 -9 -9 -10 -11 -11 -11 -10 -11 -11 -12 -14 -17 -17
-25 -24 -23 -22 -21 -20 -19 -18 -17 -16 -15 -14 -14 -13 -14 -13 -12 -12 -10 -9 -9 -8 -9 -9 -9 -9 -9 -9 -8 -8 -9 -9 -9 -9 -9 -10 -10 -10 -11 -11 -13 -14 -18
-23 -22 -21 -21 -20 -19 -19 -18 -18 -18 -17 -17 -16 -15 -14 -14 -13 -13 -14 -12 -12 -10 -9 -10 -10 -10 -9 -9 -9 -9 -9 -9 -9 -9 -9 -9 -9 -10 -10 -11 -12 -14 -18
-22 -21 -21 -20 -19 -19 -19 -19 -18 -18 -18 -18 -17 -17 -16 -15 -15 -14 -14 -14 -13 -12 -12 -12 -13 -13 -10 -10 -9 -9 -9 -9 -10 -10 -9 -9 -9 -9 -10 -11 -11 -13 -17
-21 -21 -20 -20 -20 -19 -19 -19 -19 -19 -19 -18 -18 -18 -18 -17 -17 -16 -15 -15 -14 -13 -14 -15 -14 -13 -12 -12 -12 -12 -11 -10 -9 -9 -10 -9 -9 -10 -10 -11 -11 -13 -16

GFSGL_850_dewp_042.txt.gz
Dewpoint
9 10 10 9 8 7 7 5 5 7 6 4 2 1 -1 -1 -4 -2 -4 -5 -5 -6 -8 -7 -6 -6 -6 -7 -8 -10 -9 -8 -9 -10 -11 -11 -13 -15 -18 -21 -22 -22 -19
7 9 8 7 7 6 5 8 7 6 5 -1 -0 -2 -1 -2 -2 -2 -5 -5 -5 -9 -8 -6 -6 -5 -6 -7 -8 -10 -9 -8 -9 -10 -11 -12 -14 -16 -20 -22 -22 -20 -18
6 6 6 6 6 7 7 7 5 3 -1 1 -2 -2 -1 0 -2 -3 -4 -5 -7 -9 -6 -5 -5 -5 -5 -6 -8 -10 -12 -11 -11 -11 -12 -13 -15 -18 -21 -22 -22 -20 -20
6 7 7 6 7 6 6 4 2 -0 -1 -3 -1 0 -2 -2 -2 -3 -4 -4 -7 -7 -6 -6 -5 -5 -5 -6 -9 -10 -12 -12 -11 -12 -12 -13 -15 -19 -21 -21 -21 -20 -19
7 6 7 7 5 4 4 1 -3 -3 -2 -1 -1 -0 -0 -1 -2 -3 -3 -6 -7 -6 -6 -6 -5 -5 -5 -6 -7 -9 -10 -11 -11 -11 -12 -13 -17 -20 -21 -19 -18 -19 -18
8 8 7 5 3 3 1 -2 -2 -1 -1 -0 0 -0 -1 -1 -2 -6 -7 -8 -7 -7 -6 -5 -5 -5 -5 -5 -7 -7 -9 -11 -10 -11 -11 -13 -18 -20 -19 -18 -18 -15 -12
8 7 6 4 2 -0 -2 -2 -1 -1 -0 -0 -0 -0 -2 -5 -5 -7 -9 -10 -8 -6 -6 -5 -5 -5 -5 -5 -6 -7 -10 -10 -10 -10 -12 -15 -19 -18 -17 -17 -16 -14 -13
6 5 4 3 1 -1 -1 -1 -1 -0 -0 -0 -1 -4 -6 -8 -9 -12 -12 -11 -9 -7 -6 -5 -5 -5 -5 -6 -7 -9 -11 -10 -10 -10 -12 -17 -18 -17 -16 -16 -15 -15 -16
4 3 2 1 -1 -1 -1 -1 -0 0 -2 -3 -7 -8 -9 -12 -11 -10 -10 -11 -11 -8 -6 -5 -5 -5 -6 -6 -7 -10 -12 -11 -10 -11 -14 -18 -17 -16 -14 -14 -15 -15 -15
2 1 0 -1 -1 -1 0 -0 -0 -2 -6 -8 -9 -9 -11 -11 -11 -10 -9 -9 -9 -8 -8 -7 -7 -6 -6 -6 -7 -9 -11 -13 -12 -12 -17 -17 -16 -16 -15 -15 -14 -15 -14
-1 -1 -1 0 -0 -0 -0 -2 -4 -7 -9 -11 -12 -13 -13 -13 -12 -11 -9 -8 -9 -8 -8 -8 -6 -6 -6 -7 -7 -8 -9 -11 -13 -14 -16 -15 -15 -15 -15 -15 -15 -15 -15
-1 -0 -0 -0 -2 -4 -6 -8 -10 -12 -13 -14 -13 -14 -14 -14 -12 -12 -11 -10 -10 -9 -9 -8 -8 -7 -7 -7 -7 -8 -8 -10 -13 -13 -14 -14 -14 -14 -14 -13 -14 -16 -16
-2 -5 -7 -9 -11 -12 -13 -14 -14 -14 -13 -13 -12 -12 -12 -12 -11 -10 -10 -10 -10 -10 -11 -8 -7 -7 -7 -7 -7 -8 -8 -9 -12 -11 -12 -13 -13 -13 -13 -12 -13 -17 -17
-13 -15 -15 -15 -15 -14 -14 -13 -13 -12 -10 -9 -8 -7 -7 -7 -7 -7 -7 -7 -8 -9 -10 -9 -8 -7 -7 -7 -7 -8 -8 -9 -9 -10 -11 -12 -12 -13 -12 -12 -13 -18 -17
-14 -14 -13 -12 -12 -12 -12 -10 -10 -9 -7 -7 -7 -6 -6 -7 -7 -6 -6 -5 -5 -7 -7 -8 -8 -8 -7 -8 -7 -8 -8 -8 -9 -10 -10 -11 -11 -12 -12 -12 -14 -18 -17
-12 -12 -11 -10 -9 -10 -11 -16 -20 -24 -27 -27 -26 -21 -22 -13 -13 -12 -11 -7 -6 -6 -7 -8 -8 -9 -8 -8 -8 -8 -8 -8 -9 -10 -10 -11 -11 -12 -12 -12 -14 -16 -17
-11 -12 -14 -20 -28 -32 -33 -33 -34 -35 -34 -32 -29 -25 -19 -17 -17 -14 -11 -10 -8 -7 -7 -7 -8 -9 -9 -9 -8 -8 -8 -8 -9 -10 -10 -11 -11 -12 -12 -12 -13 -15 -18
-25 -30 -33 -34 -33 -33 -32 -31 -30 -28 -29 -31 -25 -19 -18 -17 -13 -12 -14 -11 -9 -8 -7 -7 -7 -7 -9 -9 -9 -8 -8 -8 -9 -11 -12 -12 -11 -12 -12 -12 -12 -14 -17
-33 -33 -33 -33 -32 -31 -29 -27 -25 -22 -20 -18 -18 -18 -17 -17 -16 -16 -13 -10 -9 -8 -8 -7 -8 -8 -7 -10 -9 -8 -8 -9 -9 -10 -12 -12 -11 -11 -12 -12 -12 -13 -17
-32 -32 -31 -30 -28 -27 -26 -25 -24 -22 -19 -17 -15 -14 -14 -15 -14 -12 -11 -10 -9 -9 -8 -8 -8 -8 -9 -9 -8 -8 -9 -9 -9 -11 -12 -12 -11 -11 -12 -11 -12 -13 -17
-30 -29 -28 -27 -26 -25 -24 -23 -21 -20 -19 -18 -17 -16 -15 -14 -13 -14 -13 -11 -10 -10 -8 -8 -8 -8 -8 -9 -8 -9 -9 -9 -9 -11 -12 -12 -12 -11 -11 -11 -11 -13 -16
-29 -27 -26 -25 -24 -23 -22 -21 -20 -19 -19 -19 -18 -18 -17 -16 -15 -14 -13 -13 -14 -12 -11 -10 -9 -9 -9 -9 -9 -9 -9 -9 -9 -9 -10 -11 -11 -10 -11 -11 -11 -13 -15
-27 -26 -25 -24 -23 -22 -21 -20 -20 -20 -19 -19 -19 -18 -18 -18 -17 -16 -15 -14 -13 -13 -13 -12 -10 -10 -9 -9 -9 -10 -10 -9 -9 -9 -9 -10 -10 -10 -11 -11 -11 -12 -14
-25 -24 -23 -22 -22 -21 -21 -20 -20 -20 -20 -20 -19 -19 -19 -18 -18 -18 -17 -16 -14 -14 -14 -13 -13 -11 -10 -10 -10 -10 -10 -10 -9 -9 -9 -9 -9 -9 -10 -11 -11 -12 -13
-24 -23 -22 -22 -21 -21 -21 -21 -20 -20 -20 -20 -21 -21 -21 -20 -19 -19 -18 -17 -16 -15 -14 -14 -14 -13 -12 -13 -13 -11 -10 -10 -10 -9 -10 -9 -9 -9 -9 -10 -11 -11 -12
-22 -22 -22 -21 -21 -21 -21 -21 -21 -22 -22 -23 -23 -23 -22 -22 -22 -22 -21 -19 -18 -16 -16 -15 -14 -14 -13 -13 -12 -12 -11 -11 -10 -10 -10 -10 -9 -10 -10 -10 -10 -11 -12

GFSGL_850_dewp_045.txt.gz
Dewpoint
6 7 8 8 9 9 9 8 7 8 8 7 5 4 1 0 -0 -3 -3 -0 -5 -4 -5 -7 -8 -7 -6 -6 -6 -7 -5 -5 -6 -8 -8 -9 -12 -12 -13 -17 -22 -23 -23
8 7 7 6 6 6 7 6 6 7 8 7 6 2 0 1 -1 -3 -1 -0 -1 -5 -6 -9 -7 -6 -5 -5 -5 -6 -6 -6 -7 -9 -10 -10 -11 -13 -16 -20 -22 -23 -22
7 7 6 6 6 6 7 7 8 8 8 7 4 -1 1 -2 -2 -1 0 -2 -4 -5 -6 -7 -7 -6 -5 -5 -5 -6 -7 -9 -10 -10 -10 -10 -11 -11 -14 -16 -19 -20 -16
8 7 7 7 8 8 8 8 7 7 6 5 0 -1 -2 -1 -0 0 -1 -2 -4 -5 -5 -6 -6 -6 -5 -5 -6 -6 -7 -8 -9 -10 -10 -11 -11 -11 -14 -16 -14 -14 -14
9 9 9 9 8 8 6 6 4 1 -1 -2 -1 -2 -0 0 -0 -0 -1 -2 -3 -5 -7 -7 -7 -6 -5 -5 -5 -5 -6 -8 -9 -9 -10 -11 -11 -12 -14 -15 -13 -14 -13
7 8 8 8 7 5 3 2 1 -1 -1 -1 -1 -0 0 0 -0 -1 -4 -6 -7 -8 -8 -8 -7 -6 -6 -4 -5 -5 -6 -7 -7 -9 -10 -10 -11 -11 -14 -13 -12 -12 -13
6 7 7 6 4 2 1 -0 -2 -2 -1 -1 -0 0 -0 -1 -2 -5 -7 -7 -8 -10 -12 -10 -7 -6 -6 -5 -5 -5 -6 -7 -8 -9 -9 -10 -10 -12 -14 -12 -12 -12 -12
5 5 5 4 2 1 -1 -1 -1 -1 -0 0 -0 -1 -2 -5 -7 -8 -9 -10 -11 -12 -13 -10 -7 -6 -6 -6 -6 -5 -6 -8 -10 -12 -10 -10 -11 -15 -16 -12 -11 -12 -12
4 3 3 1 0 -0 -1 -1 0 -0 -0 -1 -3 -5 -7 -8 -8 -10 -9 -9 -10 -11 -11 -10 -9 -8 -7 -7 -6 -6 -6 -8 -10 -11 -11 -10 -12 -17 -17 -12 -11 -12 -12
2 2 1 0 -0 -1 0 -0 -0 -1 -3 -6 -8 -8 -8 -9 -11 -11 -11 -10 -10 -11 -10 -9 -9 -9 -8 -7 -7 -6 -6 -8 -9 -10 -12 -12 -14 -17 -16 -15 -12 -12 -12
-0 -1 -1 -0 0 0 -0 -2 -5 -7 -9 -10 -12 -13 -12 -12 -12 -13 -13 -11 -11 -10 -9 -9 -10 -10 -8 -8 -6 -6 -6 -8 -8 -9 -11 -12 -15 -14 -12 -11 -12 -12 -12
-1 -0 -0 -1 -3 -6 -8 -10 -11 -13 -13 -14 -14 -14 -14 -13 -12 -11 -10 -10 -9 -8 -9 -9 -11 -11 -9 -8 -7 -7 -7 -7 -8 -8 -10 -13 -13 -13 -11 -11 -12 -13 -12
-3 -5 -8 -11 -13 -14 -14 -14 -14 -14 -12 -11 -10 -10 -9 -9 -9 -9 -8 -6 -6 -6 -6 -7 -8 -10 -9 -7 -8 -8 -7 -7 -8 -8 -9 -11 -11 -11 -12 -13 -13 -13 -14
-13 -14 -14 -14 -14 -14 -13 -12 -11 -11 -11 -11 -13 -15 -19 -20 -10 -9 -8 -9 -8 -7 -7 -6 -6 -7 -8 -8 -8 -7 -7 -7 -7 -8 -9 -9 -10 -11 -12 -13 -13 -12 -12
-14 -15 -14 -14 -14 -14 -16 -20 -27 -32 -32 -30 -26 -24 -23 -25 -20 -18 -16 -14 -9 -8 -8 -9 -8 -7 -7 -8 -9 -8 -7 -8 -8 -8 -9 -9 -10 -10 -12 -12 -13 -12 -12
-14 -14 -17 -23 -30 -34 -35 -35 -35 -34 -33 -32 -29 -26 -21 -20 -21 -22 -23 -20 -16 -11 -10 -8 -8 -7 -7 -7 -9 -9 -9 -8 -8 -8 -9 -9 -9 -10 -11 -11 -12 -12 -12
-22 -28 -32 -34 -35 -35 -34 -33 -33 -32 -32 -31 -29 -26 -22 -18 -17 -18 -17 -19 -19 -14 -11 -12 -9 -7 -8 -7 -8 -8 -9 -8 -8 -8 -9 -9 -9 -10 -11 -11 -11 -12 -12
-32 -33 -34 -34 -33 -33 -32 -31 -30 -29 -28 -27 -26 -24 -22 -20 -16 -15 -16 -14 -11 -10 -9 -9 -9 -8 -7 -7 -8 -8 -9 -9 -8 -8 -8 -9 -10 -10 -11 -11 -11 -12 -12
-33 -33 -33 -32 -31 -30 -30 -29 -28 -26 -26 -25 -24 -24 -23 -21 -20 -17 -15 -14 -14 -12 -11 -10 -9 -8 -7 -8 -8 -8 -9 -8 -8 -8 -9 -9 -11 -12 -11 -11 -11 -12 -13
-32 -32 -31 -30 -29 -28 -27 -26 -25 -24 -23 -23 -22 -22 -21 -21 -20 -19 -17 -15 -14 -13 -13 -11 -10 -9 -8 -8 -8 -8 -8 -8 -9 -9 -9 -9 -11 -12 -11 -12 -12 -12 -12
-31 -30 -29 -28 -27 -27 -25 -24 -23 -23 -22 -21 -21 -21 -20 -20 -19 -18 -18 -17 -15 -14 -14 -13 -13 -11 -10 -9 -9 -9 -9 -9 -9 -9 -9 -9 -11 -12 -11 -11 -11 -11 -12
-30 -29 -28 -27 -26 -25 -24 -23 -22 -22 -21 -21 -21 -21 -21 -20 -20 -19 -19 -18 -17 -16 -14 -14 -13 -13 -12 -11 -11 -10 -9 -10 -10 -9 -9 -9 -10 -12 -12 -11 -11 -11 -12
-28 -27 -26 -25 -24 -23 -23 -22 -22 -21 -21 -21 -21 -21 -21 -21 -21 -21 -20 -19 -19 -18 -16 -15 -14 -13 -13 -13 -12 -11 -10 -10 -10 -10 -10 -10 -10 -11 -11 -11 -11 -11 -11
-27 -26 -25 -24 -23 -22 -22 -22 -21 -21 -21 -22 -24 -24 -24 -24 -24 -23 -23 -22 -22 -19 -18 -16 -15 -15 -14 -13 -13 -11 -11 -10 -11 -10 -10 -10 -10 -10 -10 -10 -11 -11 -11
-25 -24 -23 -23 -22 -22 -21 -21 -22 -23 -24 -24 -24 -24 -24 -24 -23 -23 -23 -23 -23 -23 -21 -18 -16 -15 -15 -14 -14 -12 -11 -11 -11 -10 -10 -10 -10 -9 -9 -9 -10 -10 -11
-23 -23 -22 -22 -22 -21 -21 -23 -24 -24 -24 -24 -24 -23 -23 -23 -23 -23 -23 -23 -23 -23 -23 -22 -19 -16 -15 -15 -14 -13 -12 -12 -11 -11 -10 -10 -10 -10 -10 -10 -10 -10 -10

GFSGL_850_dewp_048.txt.gz
Dewpoint
10 10 8 8 9 9 10 10 9 9 9 8 8 8 7 6 2 0 1 0 -2 0 -0 -1 -2 -3 -4 -4 -4 -4 -5 -6 -7 -8 -9 -10 -8 -8 -9 -10 -10 -12 -15
11 10 10 9 9 9 9 9 9 9 9 9 8 8 7 5 1 1 0 -1 -1 -0 -1 -1 -2 -4 -4 -4 -4 -4 -5 -5 -6 -8 -9 -10 -10 -10 -9 -10 -11 -14 -15
10 8 8 8 8 7 8 7 8 8 8 8 8 6 5 1 -0 1 1 -0 -1 -1 -2 -1 -2 -3 -4 -3 -4 -4 -5 -6 -7 -8 -9 -10 -10 -10 -10 -11 -12 -14 -14
9 9 9 9 9 9 9 9 8 8 7 7 6 4 2 0 1 -0 -0 -0 -1 -1 -2 -2 -3 -2 -4 -4 -4 -4 -4 -5 -7 -8 -9 -10 -10 -11 -11 -12 -14 -16 -15
9 9 9 9 9 8 8 7 7 7 6 6 4 2 0 0 0 0 -0 -0 -1 -1 -2 -1 -3 -4 -6 -5 -5 -6 -5 -5 -6 -8 -9 -10 -11 -11 -12 -13 -13 -15 -14
7 7 8 8 7 6 5 4 3 2 0 -1 -0 -0 -0 -0 0 -0 -0 -1 -2 -2 -3 -4 -4 -5 -6 -8 -6 -5 -6 -5 -6 -7 -7 -7 -10 -11 -12 -12 -14 -14 -14
5 6 6 6 5 4 2 1 1 -0 -1 -1 -1 0 0 0 0 -1 -2 -5 -3 -4 -4 -5 -6 -7 -6 -6 -5 -6 -6 -5 -5 -6 -6 -7 -9 -10 -11 -12 -14 -13 -13
4 4 5 4 3 2 1 -0 -1 -1 -1 0 0 0 -1 -2 -4 -6 -8 -8 -6 -5 -5 -5 -6 -7 -6 -5 -5 -5 -6 -6 -6 -6 -7 -8 -9 -10 -10 -12 -13 -11 -12
3 3 2 1 1 0 -0 -1 -0 0 0 -1 -1 -2 -2 -3 -6 -8 -8 -8 -5 -5 -6 -6 -6 -6 -7 -7 -8 -5 -6 -6 -6 -6 -7 -8 -10 -11 -11 -11 -11 -12 -11
2 1 1 0 -0 -0 0 0 0 -0 -2 -3 -4 -4 -6 -11 -12 -12 -10 -9 -8 -7 -6 -6 -6 -6 -10 -9 -8 -8 -6 -7 -7 -6 -8 -9 -10 -12 -12 -14 -11 -11 -11
0 0 -0 -0 0 -0 -0 -1 -4 -5 -8 -11 -14 -14 -14 -12 -12 -12 -11 -9 -8 -6 -5 -6 -6 -6 -7 -10 -9 -8 -8 -7 -6 -6 -7 -8 -9 -10 -11 -11 -11 -11 -11
-1 0 0 -0 -1 -4 -7 -10 -12 -9 -11 -8 -8 -7 -5 -5 -5 -6 -9 -9 -8 -6 -6 -5 -5 -5 -5 -7 -8 -9 -8 -7 -6 -6 -8 -8 -8 -9 -11 -11 -11 -11 -11
-1 -3 -6 -10 -14 -15 -12 -11 -7 -6 -6 -6 -7 -7 -8 -9 -9 -10 -10 -15 -18 -17 -14 -8 -8 -7 -6 -6 -6 -7 -6 -7 -7 -6 -7 -8 -8 -8 -9 -9 -10 -11 -11
-10 -13 -13 -15 -13 -15 -12 -14 -12 -16 -22 -21 -13 -12 -11 -12 -10 -11 -21 -21 -25 -26 -15 -11 -11 -8 -8 -9 -7 -7 -7 -7 -7 -7 -7 -8 -8 -9 -9 -9 -10 -10 -10
-14 -15 -15 -15 -18 -20 -22 -32 -33 -33 -35 -34 -29 -30 -25 -19 -16 -22 -19 -19 -19 -19 -17 -21 -12 -11 -11 -9 -8 -7 -7 -7 -8 -8 -8 -8 -8 -9 -9 -9 -10 -10 -10
-15 -17 -23 -29 -31 -31 -24 -16 -27 -32 -33 -33 -31 -29 -27 -25 -24 -23 -21 -19 -18 -16 -11 -10 -11 -11 -11 -10 -9 -7 -7 -7 -7 -8 -8 -8 -9 -9 -9 -10 -10 -10 -10
-24 -28 -30 -32 -32 -32 -30 -23 -15 -13 -24 -26 -28 -28 -27 -26 -25 -25 -24 -23 -18 -15 -11 -11 -10 -9 -8 -8 -8 -7 -7 -8 -8 -9 -8 -8 -9 -9 -9 -10 -10 -10 -10
-29 -31 -32 -32 -32 -31 -29 -28 -22 -19 -16 -14 -17 -25 -26 -25 -25 -24 -24 -22 -15 -13 -13 -13 -12 -12 -11 -10 -8 -7 -7 -8 -8 -8 -8 -8 -9 -9 -9 -10 -10 -10 -10
-31 -32 -33 -33 -32 -32 -30 -28 -22 -20 -15 -16 -15 -16 -18 -23 -23 -19 -18 -15 -15 -15 -15 -15 -14 -14 -13 -10 -8 -7 -8 -8 -8 -8 -9 -9 -9 -9 -9 -10 -10 -10 -11
-31 -33 -32 -31 -30 -29 -28 -27 -23 -19 -18 -16 -15 -15 -20 -22 -18 -15 -16 -16 -16 -16 -16 -16 -16 -15 -13 -12 -10 -8 -8 -8 -8 -8 -9 -9 -9 -9 -9 -10 -10 -10 -11
-31 -31 -31 -30 -29 -28 -27 -25 -24 -21 -19 -18 -16 -16 -22 -22 -17 -17 -17 -17 -17 -18 -17 -17 -16 -15 -14 -13 -12 -10 -9 -9 -9 -9 -9 -9 -9 -9 -10 -11 -11 -11 -11
-31 -30 -29 -28 -27 -27 -25 -25 -24 -22 -21 -19 -18 -19 -24 -22 -18 -18 -18 -18 -19 -19 -19 -18 -17 -16 -15 -14 -13 -13 -12 -11 -10 -10 -10 -10 -10 -10 -10 -11 -11 -11 -11
-29 -28 -27 -27 -26 -25 -24 -24 -23 -22 -21 -22 -22 -23 -24 -22 -22 -19 -19 -19 -19 -21 -21 -21 -20 -18 -16 -15 -14 -14 -13 -13 -11 -11 -10 -10 -10 -10 -10 -11 -10 -11 -11
-28 -27 -26 -25 -25 -24 -23 -23 -22 -21 -23 -25 -25 -24 -21 -22 -21 -20 -20 -20 -22 -23 -23 -23 -23 -22 -18 -16 -15 -14 -14 -13 -12 -11 -11 -11 -11 -10 -10 -10 -11 -11 -11
-26 -25 -25 -24 -23 -23 -23 -22 -22 -23 -25 -26 -24 -24 -22 -22 -21 -21 -21 -22 -23 -23 -23 -23 -24 -23 -22 -18 -15 -15 -14 -13 -13 -12 -11 -11 -11 -11 -10 -10 -10 -10 -11
-24 -24 -23 -23 -22 -22 -22 -22 -23 -25 -25 -26 -26 -25 -24 -23 -22 -22 -22 -22 -22 -23 -23 -23 -23 -23 -22 -21 -17 -15 -14 -14 -13 -12 -12 -11 -11 -11 -10 -10 -10 -10 -10

GFSGL_850_dewp_051.txt.gz
Dewpoint
11 12 12 11 9 9 10 10 10 10 10 10 9 8 8 7 5 5 3 0 1 1 1 1 0 -0 -0 -1 -2 -3 -3 -4 -5 -7 -7 -8 -8 -8 -8 -7 -8 -9 -9
11 11 11 11 11 11 11 10 10 9 9 9 9 8 7 5 4 3 2 1 1 1 1 0 -0 -1 -0 -1 -2 -3 -3 -4 -4 -5 -6 -7 -9 -9 -9 -9 -8 -10 -10
11 11 11 11 11 11 10 10 9 8 8 8 8 7 6 4 3 2 1 1 1 1 0 -0 -0 -1 -1 -1 -2 -2 -3 -4 -4 -4 -4 -7 -9 -9 -9 -10 -10 -10 -11
11 11 11 10 10 9 9 9 8 8 8 7 7 7 5 3 2 1 1 1 1 0 -0 -0 -1 -1 -2 -2 -2 -3 -4 -4 -4 -5 -5 -7 -8 -9 -10 -10 -10 -11 -11
9 9 10 9 9 8 8 7 7 7 7 6 6 5 4 2 1 1 1 1 0 -0 -1 -1 -1 -2 -1 -1 -3 -5 -5 -5 -5 -4 -5 -6 -8 -9 -10 -10 -9 -11 -12
8 7 8 7 6 6 6 5 4 4 3 2 1 0 0 -0 -0 0 0 0 -0 -1 -1 -2 -1 -3 -4 -5 -5 -6 -8 -6 -6 -5 -6 -6 -7 -8 -7 -7 -9 -11 -11
6 5 5 5 5 4 3 2 2 1 0 -0 -1 -0 0 0 0 0 -0 -1 -2 -2 -3 -3 -4 -5 -6 -7 -7 -6 -5 -6 -6 -5 -5 -6 -6 -6 -6 -6 -9 -10 -11
4 4 4 4 3 2 2 1 0 -0 -0 0 1 1 0 -1 -2 -5 -7 -8 -8 -5 -5 -5 -5 -5 -6 -6 -6 -6 -5 -5 -5 -7 -7 -7 -7 -7 -6 -8 -8 -10 -11
2 2 2 2 2 2 1 1 1 0 1 -0 -1 -1 -1 -2 -3 -6 -8 -8 -8 -6 -5 -5 -5 -6 -6 -6 -6 -6 -6 -6 -6 -7 -7 -6 -7 -7 -8 -8 -9 -9 -11
2 2 2 2 2 1 0 1 0 -0 -1 -2 -4 -4 -4 -7 -4 -5 -10 -11 -11 -7 -5 -5 -6 -6 -6 -6 -6 -6 -6 -7 -7 -7 -6 -6 -7 -6 -7 -7 -10 -9 -10
1 1 1 1 0 0 0 -1 -2 -3 -4 -4 -11 -6 -5 -5 -4 -4 -6 -8 -8 -10 -11 -10 -7 -6 -6 -5 -5 -5 -5 -7 -8 -7 -6 -6 -6 -7 -8 -10 -10 -12 -11
1 0 -0 0 -1 -2 -3 -5 -6 -6 -5 -5 -5 -5 -4 -4 -5 -6 -9 -14 -17 -16 -22 -27 -27 -27 -26 -19 -9 -6 -5 -6 -6 -7 -6 -7 -7 -6 -7 -8 -9 -10 -10
-1 -1 -3 -5 -6 -6 -6 -6 -7 -6 -6 -7 -9 -8 -9 -9 -10 -9 -13 -25 -33 -33 -32 -32 -33 -32 -29 -17 -10 -10 -8 -8 -7 -6 -7 -7 -8 -8 -7 -8 -9 -9 -9
-3 -5 -5 -6 -7 -8 -9 -12 -12 -12 -17 -15 -11 -11 -11 -17 -11 -16 -30 -32 -30 -29 -28 -28 -27 -18 -13 -11 -11 -10 -9 -9 -8 -7 -7 -7 -7 -7 -7 -8 -8 -9 -9
-6 -7 -8 -11 -12 -14 -14 -18 -23 -31 -35 -35 -30 -32 -28 -28 -20 -29 -28 -27 -27 -26 -25 -18 -11 -9 -9 -8 -8 -9 -10 -9 -8 -7 -7 -7 -7 -7 -8 -8 -9 -9 -10
-9 -10 -12 -16 -19 -15 -15 -16 -21 -23 -29 -34 -34 -32 -31 -30 -28 -27 -26 -26 -25 -24 -18 -12 -12 -12 -11 -11 -10 -10 -8 -8 -8 -8 -7 -8 -7 -7 -7 -8 -9 -9 -9
-11 -19 -27 -23 -16 -19 -20 -16 -13 -13 -22 -22 -23 -28 -30 -29 -26 -25 -25 -25 -20 -14 -12 -12 -12 -13 -13 -12 -12 -11 -11 -11 -7 -7 -7 -7 -8 -9 -8 -8 -8 -9 -9
-23 -24 -16 -14 -17 -22 -20 -25 -18 -15 -13 -11 -11 -14 -18 -24 -25 -25 -24 -21 -13 -13 -13 -13 -13 -14 -14 -14 -13 -13 -11 -10 -7 -8 -8 -8 -8 -9 -8 -8 -9 -9 -9
-16 -19 -23 -29 -33 -33 -31 -28 -20 -16 -13 -13 -13 -13 -13 -18 -24 -18 -14 -14 -14 -14 -14 -14 -14 -15 -15 -15 -14 -14 -11 -10 -8 -8 -8 -8 -8 -9 -8 -8 -9 -9 -9
-29 -32 -32 -29 -28 -26 -23 -21 -15 -14 -13 -13 -13 -13 -14 -22 -23 -14 -14 -15 -15 -15 -16 -16 -16 -16 -16 -16 -16 -14 -13 -11 -10 -8 -8 -9 -9 -9 -9 -8 -9 -9 -10
-19 -29 -31 -26 -23 -26 -25 -20 -17 -14 -13 -14 -14 -14 -17 -22 -17 -15 -15 -16 -16 -16 -17 -17 -17 -18 -17 -17 -17 -15 -14 -12 -12 -10 -8 -8 -9 -9 -9 -9 -9 -9 -9
-29 -29 -28 -27 -26 -24 -26 -23 -17 -14 -14 -15 -15 -15 -16 -17 -16 -16 -17 -17 -18 -18 -18 -18 -19 -19 -18 -18 -18 -17 -15 -14 -13 -12 -10 -10 -10 -10 -9 -9 -9 -10 -10
-29 -28 -27 -25 -26 -26 -19 -17 -15 -15 -16 -16 -16 -16 -17 -17 -17 -18 -18 -18 -19 -19 -19 -20 -20 -20 -19 -19 -19 -17 -17 -15 -14 -13 -13 -11 -10 -10 -10 -9 -10 -10 -10
-28 -27 -26 -25 -22 -23 -16 -16 -16 -16 -17 -17 -17 -17 -18 -18 -18 -19 -19 -19 -20 -20 -20 -20 -20 -21 -20 -20 -21 -20 -17 -16 -15 -14 -13 -13 -11 -11 -10 -10 -10 -10 -10
-27 -26 -24 -18 -16 -17 -17 -17 -17 -18 -18 -18 -18 -19 -19 -19 -19 -19 -20 -20 -21 -21 -21 -21 -21 -20 -20 -20 -22 -22 -20 -16 -15 -14 -14 -13 -12 -11 -10 -10 -10 -10 -10
-24 -23 -21 -17 -17 -17 -18 -18 -18 -19 -19 -19 -20 -20 -20 -20 -20 -21 -21 -21 -22 -21 -21 -20 -19 -18 -18 -18 -19 -21 -21 -17 -15 -15 -14 -13 -12 -12 -11 -10 -10 -10 -10

GFSGL_850_dewp_054.txt.gz
Dewpoint
10 8 9 9 8 8 11 11 11 11 10 10 10 9 9 9 8 7 6 6 5 4 2 2 1 1 1 0 0 -1 -2 -3 -3 -3 -3 -5 -7 -7 -7 -8 -8 -9 -9
10 10 10 10 11 11 10 11 10 10 9 9 8 8 8 8 7 6 5 4 3 2 1 1 1 1 0 -0 -0 -1 -1 -2 -2 -3 -3 -4 -6 -8 -6 -8 -9 -9 -9
10 10 10 11 10 11 11 10 9 9 9 9 8 8 8 7 6 5 4 4 3 1 1 1 1 0 -0 -1 -0 -0 -1 -2 -2 -2 -3 -4 -5 -6 -6 -8 -9 -9 -10
10 10 11 10 11 10 10 10 9 9 9 8 8 7 7 6 4 4 3 2 1 1 1 0 -0 -0 -1 -0 -1 -1 -1 -2 -2 -2 -3 -3 -3 -4 -6 -8 -8 -9 -9
10 10 11 11 10 9 9 8 8 8 7 7 7 6 5 4 3 2 1 1 1 0 -0 -0 -1 -1 -2 -2 -2 -2 -2 -2 -3 -4 -3 -3 -3 -4 -5 -7 -8 -7 -8
11 10 10 9 8 8 7 7 6 6 6 5 3 1 1 0 0 0 0 -0 -0 -0 -0 -2 -2 -3 -3 -3 -4 -4 -4 -5 -6 -6 -6 -6 -4 -4 -4 -5 -6 -6 -7
9 8 7 7 6 6 5 4 3 2 2 1 0 -0 -0 0 -0 -0 -0 -1 -1 -4 -4 -3 -4 -4 -5 -5 -6 -6 -6 -6 -6 -5 -5 -6 -7 -7 -5 -4 -6 -5 -7
6 5 5 5 4 3 3 3 2 1 0 1 1 0 -0 -1 -2 -3 -6 -8 -9 -7 -5 -5 -5 -5 -5 -5 -5 -5 -5 -6 -6 -6 -5 -5 -6 -6 -6 -7 -7 -7 -7
3 3 3 3 2 2 2 2 1 2 1 0 -1 -2 -1 -2 -3 -5 -8 -8 -11 -12 -13 -13 -12 -10 -8 -7 -6 -6 -6 -6 -6 -6 -6 -7 -7 -7 -6 -5 -6 -7 -7
2 2 2 2 2 2 1 1 1 -0 -1 -1 -3 -3 -5 -5 -4 -5 -7 -9 -11 -14 -17 -19 -24 -28 -31 -29 -21 -11 -7 -6 -5 -5 -6 -5 -7 -8 -7 -6 -6 -6 -7
2 2 2 2 1 1 0 -1 -1 -3 -3 -5 -10 -9 -7 -5 -5 -7 -9 -13 -18 -25 -31 -35 -37 -37 -36 -36 -35 -33 -33 -30 -20 -12 -7 -6 -5 -6 -6 -7 -7 -8 -8
2 1 1 0 -0 -1 -2 -3 -5 -5 -6 -5 -6 -6 -5 -4 -5 -8 -16 -28 -26 -31 -36 -36 -36 -35 -35 -31 -19 -13 -13 -13 -12 -13 -8 -9 -8 -7 -6 -6 -7 -7 -10
1 -0 -1 -2 -3 -4 -5 -6 -6 -5 -5 -6 -9 -15 -10 -10 -11 -22 -30 -27 -35 -36 -34 -34 -33 -32 -26 -17 -12 -9 -8 -8 -8 -8 -8 -9 -8 -7 -7 -7 -7 -7 -7
-1 -2 -4 -6 -6 -7 -7 -9 -8 -10 -15 -21 -21 -19 -21 -23 -31 -33 -33 -36 -35 -34 -33 -32 -30 -20 -12 -16 -14 -12 -11 -10 -9 -8 -8 -9 -8 -7 -7 -6 -7 -7 -7
-4 -5 -5 -6 -9 -11 -12 -16 -19 -23 -29 -33 -32 -33 -36 -34 -35 -34 -33 -33 -31 -29 -29 -26 -18 -12 -14 -15 -17 -15 -14 -11 -11 -12 -10 -8 -8 -7 -6 -7 -7 -7 -7
-6 -7 -9 -12 -14 -14 -15 -18 -21 -22 -26 -30 -33 -32 -32 -33 -33 -32 -31 -30 -28 -25 -22 -15 -13 -14 -14 -14 -15 -14 -14 -13 -12 -11 -12 -9 -7 -7 -7 -8 -8 -7 -8
-8 -10 -12 -15 -16 -18 -16 -15 -14 -14 -16 -21 -25 -26 -29 -32 -31 -29 -28 -27 -24 -15 -13 -14 -14 -14 -14 -14 -14 -14 -14 -14 -13 -11 -10 -10 -7 -7 -7 -7 -8 -8 -8
-13 -17 -19 -21 -22 -23 -24 -20 -19 -15 -15 -17 -14 -15 -15 -18 -24 -25 -25 -22 -16 -16 -15 -15 -15 -15 -15 -15 -16 -15 -15 -15 -14 -12 -10 -8 -8 -7 -7 -8 -8 -8 -8
-20 -20 -21 -22 -25 -29 -30 -31 -26 -22 -18 -15 -14 -12 -12 -13 -16 -24 -15 -14 -15 -15 -15 -15 -16 -16 -16 -16 -17 -16 -16 -15 -15 -13 -12 -10 -7 -8 -8 -8 -8 -8 -8
-22 -14 -11 -20 -29 -30 -29 -27 -22 -20 -17 -15 -14 -13 -13 -17 -21 -24 -16 -15 -15 -16 -16 -16 -17 -17 -17 -17 -18 -18 -17 -17 -16 -14 -12 -12 -9 -8 -9 -8 -8 -8 -8
-7 -14 -26 -30 -28 -26 -26 -25 -21 -21 -19 -15 -14 -14 -14 -17 -20 -17 -15 -16 -16 -16 -17 -17 -17 -18 -18 -18 -18 -20 -18 -18 -16 -15 -14 -12 -12 -10 -9 -9 -9 -8 -8
-13 -20 -29 -29 -27 -27 -27 -26 -25 -21 -16 -14 -14 -15 -15 -16 -16 -16 -17 -17 -17 -18 -18 -18 -19 -19 -19 -19 -20 -21 -19 -20 -18 -16 -15 -13 -12 -10 -10 -9 -9 -8 -9
-27 -29 -29 -28 -27 -27 -26 -21 -18 -16 -15 -16 -17 -16 -16 -16 -17 -17 -17 -18 -18 -19 -19 -21 -21 -21 -21 -22 -21 -20 -20 -19 -21 -17 -16 -15 -13 -12 -11 -10 -9 -9 -9
-29 -28 -28 -27 -25 -23 -22 -16 -18 -16 -16 -16 -16 -17 -17 -17 -18 -18 -18 -19 -19 -19 -21 -21 -21 -21 -21 -20 -19 -19 -19 -20 -20 -18 -16 -16 -14 -13 -12 -11 -10 -9 -9
-25 -23 -21 -21 -18 -16 -16 -16 -16 -17 -17 -17 -18 -18 -18 -19 -19 -19 -19 -20 -20 -22 -22 -22 -21 -20 -19 -19 -18 -18 -18 -18 -19 -20 -17 -16 -15 -14 -13 -12 -10 -9 -10
-14 -17 -18 -18 -17 -16 -17 -17 -17 -18 -18 -18 -19 -19 -20 -20 -20 -20 -20 -21 -21 -23 -22 -21 -20 -19 -19 -19 -18 -18 -18 -18 -17 -18 -17 -16 -15 -14 -13 -12 -11 -10 -10

GFSGL_850_dewp_057.txt.gz
Dewpoint
8 8 9 8 8 9 8 8 8 9 10 8 8 9 9 10 9 8 8 8 7 6 5 5 4 2 2 2 1 1 0 0 -0 -1 -2 -3 -3 -4 -5 -6 -8 -7 -7
9 9 9 9 9 10 9 8 8 9 11 10 10 9 8 8 8 8 7 7 6 5 4 3 2 1 1 1 0 0 0 -0 -0 -0 -1 -2 -3 -3 -4 -5 -5 -7 -7
10 9 9 9 6 9 9 9 10 11 10 9 9 9 8 7 7 7 6 5 4 3 3 2 1 1 0 -0 -1 -1 -0 -0 -0 -1 -1 -2 -3 -3 -3 -3 -4 -5 -6
9 10 10 10 10 10 9 9 10 9 9 9 8 8 8 7 6 5 4 3 3 2 1 1 1 0 -1 -1 -1 -1 -1 -2 -4 -4 -3 -3 -3 -3 -3 -4 -4 -4 -6
9 9 10 11 10 10 10 10 9 9 9 8 8 8 7 6 5 4 3 3 1 1 1 -0 -1 -1 -3 -3 -3 -3 -3 -4 -4 -4 -4 -4 -5 -6 -6 -7 -5 -4 -5
9 9 9 10 11 10 9 9 8 8 7 7 7 6 5 4 2 1 1 0 -0 -1 -1 -1 -3 -3 -4 -4 -4 -4 -4 -4 -5 -5 -6 -5 -6 -6 -5 -5 -5 -5 -4
10 10 10 10 10 9 8 8 7 6 6 5 4 2 0 -0 -0 -0 -0 -0 -1 -1 -4 -6 -4 -4 -4 -4 -4 -4 -4 -4 -4 -5 -5 -5 -5 -5 -5 -5 -6 -6 -6
10 10 9 9 8 7 6 4 4 3 2 1 0 0 -0 -0 -0 -1 -3 -7 -9 -8 -7 -6 -6 -6 -6 -6 -7 -7 -7 -8 -7 -7 -6 -5 -5 -5 -5 -6 -6 -6 -5
8 8 7 6 4 3 3 3 2 1 1 0 0 -1 -2 -1 -2 -5 -8 -10 -11 -10 -11 -12 -13 -14 -18 -27 -32 -36 -38 -38 -38 -38 -37 -34 -18 -6 -4 -5 -5 -6 -6
6 5 4 3 3 2 2 2 1 0 0 -1 -2 -2 -3 -4 -5 -7 -6 -7 -8 -12 -19 -29 -35 -37 -38 -37 -37 -37 -36 -27 -19 -20 -19 -21 -24 -32 -26 -7 -5 -5 -5
3 3 2 2 2 2 1 1 -0 -1 -1 -2 -3 -3 -5 -6 -7 -7 -6 -8 -16 -31 -35 -37 -38 -38 -38 -37 -32 -22 -15 -15 -13 -10 -10 -9 -11 -11 -12 -11 -11 -9 -5
2 2 2 2 2 0 -0 -1 -1 -1 -2 -3 -5 -7 -6 -6 -7 -7 -10 -21 -32 -35 -37 -38 -38 -36 -34 -28 -23 -23 -22 -18 -15 -11 -10 -11 -10 -8 -10 -9 -10 -7 -9
2 2 2 2 1 -0 -1 -2 -3 -3 -5 -8 -5 -6 -6 -8 -11 -14 -23 -30 -32 -36 -37 -36 -34 -32 -28 -24 -24 -24 -26 -24 -19 -15 -11 -11 -12 -9 -8 -8 -9 -8 -7
2 2 1 -1 -1 -2 -4 -6 -6 -5 -5 -5 -5 -10 -12 -13 -16 -25 -33 -35 -36 -36 -35 -34 -32 -27 -25 -24 -25 -26 -26 -24 -19 -16 -14 -12 -13 -12 -10 -8 -8 -7 -7
1 -1 -3 -3 -4 -5 -5 -6 -6 -6 -9 -16 -22 -22 -24 -31 -34 -35 -36 -35 -35 -33 -32 -30 -27 -25 -25 -25 -25 -24 -24 -24 -22 -17 -14 -12 -12 -12 -12 -8 -7 -7 -7
-2 -4 -6 -6 -7 -7 -8 -12 -15 -21 -25 -29 -31 -33 -35 -34 -33 -34 -34 -32 -31 -29 -27 -22 -17 -16 -18 -21 -24 -26 -25 -23 -21 -18 -15 -12 -12 -11 -9 -8 -7 -7 -8
-4 -5 -7 -9 -12 -14 -15 -16 -18 -16 -16 -21 -25 -28 -28 -27 -31 -29 -29 -30 -28 -25 -18 -16 -16 -17 -18 -22 -23 -23 -24 -23 -21 -19 -16 -13 -12 -11 -9 -8 -7 -8 -8
-6 -7 -10 -13 -14 -14 -14 -16 -16 -17 -19 -21 -21 -20 -24 -24 -23 -18 -22 -24 -20 -20 -19 -18 -17 -18 -20 -22 -22 -22 -23 -24 -23 -20 -17 -14 -12 -12 -9 -7 -7 -8 -9
-10 -12 -14 -15 -16 -15 -9 -10 -25 -25 -24 -21 -17 -15 -16 -15 -15 -16 -18 -21 -17 -17 -17 -17 -17 -19 -21 -21 -22 -23 -23 -22 -23 -21 -18 -16 -13 -13 -11 -9 -8 -8 -8
-14 -13 -9 -7 -6 -8 -10 -10 -12 -24 -23 -19 -16 -14 -13 -13 -13 -17 -21 -19 -16 -16 -16 -16 -18 -21 -22 -23 -23 -22 -22 -22 -24 -22 -20 -17 -14 -13 -12 -10 -9 -8 -9
-6 -7 -7 -8 -8 -9 -13 -23 -25 -25 -23 -20 -18 -16 -15 -15 -16 -18 -17 -16 -16 -17 -17 -18 -21 -22 -23 -23 -22 -22 -22 -23 -22 -22 -22 -19 -15 -13 -13 -12 -10 -9 -9
-8 -8 -9 -10 -11 -10 -16 -24 -24 -25 -23 -20 -17 -15 -15 -15 -16 -16 -16 -17 -17 -18 -18 -19 -20 -23 -23 -22 -22 -22 -21 -21 -21 -21 -22 -21 -17 -15 -13 -12 -11 -9 -9
-10 -10 -11 -11 -13 -20 -24 -24 -22 -20 -19 -16 -15 -16 -18 -17 -17 -17 -17 -18 -18 -19 -19 -20 -23 -24 -22 -22 -21 -20 -19 -19 -19 -19 -21 -21 -19 -16 -14 -13 -11 -11 -10
-12 -13 -14 -16 -19 -20 -19 -18 -17 -16 -17 -16 -16 -16 -17 -17 -17 -18 -18 -19 -19 -19 -21 -24 -24 -22 -21 -20 -19 -19 -19 -19 -20 -19 -19 -19 -18 -16 -15 -14 -12 -11 -10
-13 -13 -13 -14 -15 -16 -16 -16 -16 -16 -17 -17 -17 -18 -18 -18 -19 -19 -20 -20 -20 -22 -24 -24 -23 -21 -20 -20 -19 -19 -19 -18 -19 -19 -18 -18 -18 -16 -15 -14 -13 -12 -11
-15 -15 -16 -17 -17 -17 -17 -17 -17 -18 -18 -18 -19 -19 -20 -20 -21 -21 -21 -21 -23 -24 -24 -25 -23 -21 -20 -20 -20 -19 -18 -18 -18 -18 -18 -17 -17 -16 -15 -14 -14 -13 -11

GFSGL_850_dewp_060.txt.gz
Dewpoint
7 7 7 8 8 8 9 8 9 9 8 8 7 7 7 8 8 8 9 9 8 8 7 7 6 5 4 3 2 2 2 2 1 0 0 -0 -1 -1 -2 -3 -3 -4 -4
8 9 10 9 9 9 8 8 7 9 10 9 8 8 9 9 9 9 9 8 8 7 6 6 5 4 3 2 2 1 0 0 0 0 -1 -2 -1 -1 -1 -1 -2 -2 -3
10 9 9 8 8 8 6 8 7 6 7 9 8 9 9 8 7 7 7 8 7 6 5 4 3 2 1 1 0 -0 -1 -1 -1 -0 -1 -1 -3 -4 -5 -5 -4 -4 -4
9 9 9 9 9 8 9 7 7 7 8 10 9 9 8 8 8 7 7 6 5 4 4 3 2 1 1 -0 -1 -2 -3 -3 -3 -4 -4 -4 -4 -5 -5 -5 -6 -6 -7
9 9 9 9 6 8 9 8 6 10 10 10 9 8 8 8 8 7 6 5 4 3 2 1 1 -0 -1 -2 -3 -3 -2 -3 -3 -3 -3 -3 -3 -4 -5 -5 -4 -5 -6
10 10 9 9 9 9 10 9 10 10 9 8 8 8 8 7 6 6 5 4 2 1 0 -1 -1 -1 -3 -4 -4 -4 -4 -4 -4 -4 -4 -4 -4 -5 -7 -7 -6 -5 -5
10 9 8 8 9 10 10 9 9 9 8 7 7 7 6 6 5 3 2 1 -0 -1 -1 -1 -2 -6 -8 -8 -7 -6 -5 -4 -4 -5 -6 -7 -10 -12 -13 -8 -5 -5 -6
10 10 10 11 10 10 10 9 8 7 6 6 5 5 4 2 0 -0 -1 -1 -1 -2 -3 -8 -10 -9 -8 -8 -9 -11 -15 -22 -28 -33 -36 -36 -31 -27 -22 -25 -27 -19 -8
9 10 10 10 9 9 8 8 7 6 5 4 2 1 0 -0 -0 -1 -2 -5 -9 -9 -10 -11 -11 -11 -14 -24 -34 -37 -38 -39 -38 -33 -27 -23 -20 -15 -12 -10 -11 -9 -9
10 10 10 9 9 8 7 5 3 3 2 1 0 -0 -1 -2 -2 -4 -6 -9 -10 -10 -9 -12 -21 -33 -37 -38 -39 -38 -38 -36 -35 -34 -33 -32 -28 -20 -12 -10 -8 -9 -9
9 8 8 8 6 4 3 2 2 1 0 -0 -1 -1 -2 -2 -3 -5 -6 -7 -7 -11 -23 -32 -36 -37 -38 -38 -38 -37 -31 -32 -31 -32 -33 -31 -29 -27 -22 -14 -10 -8 -8
7 7 5 4 3 2 2 1 1 0 -0 -1 -1 -3 -3 -4 -5 -6 -6 -7 -12 -26 -33 -36 -37 -37 -37 -37 -35 -31 -32 -31 -31 -31 -31 -30 -25 -19 -16 -18 -15 -10 -8
5 4 3 2 2 2 1 1 0 -0 -1 -1 -3 -4 -5 -6 -6 -6 -8 -13 -23 -32 -36 -36 -36 -35 -35 -31 -28 -29 -29 -30 -29 -27 -27 -26 -21 -16 -14 -14 -15 -12 -10
3 2 2 2 2 1 0 -0 -0 -1 -2 -3 -4 -6 -7 -7 -8 -11 -13 -22 -32 -35 -35 -34 -34 -33 -29 -26 -25 -27 -29 -29 -29 -27 -25 -24 -21 -15 -13 -13 -13 -12 -9
2 2 2 2 1 -0 -2 -2 -3 -4 -4 -5 -5 -5 -7 -10 -12 -15 -27 -34 -34 -34 -34 -31 -28 -25 -26 -26 -27 -27 -28 -28 -28 -28 -27 -24 -21 -15 -13 -13 -12 -10 -8
2 2 1 0 -1 -3 -4 -5 -5 -6 -6 -8 -10 -11 -13 -17 -26 -31 -32 -32 -31 -32 -30 -26 -23 -24 -26 -25 -25 -25 -26 -26 -27 -27 -28 -24 -20 -16 -13 -13 -9 -9 -8
2 -1 -3 -3 -4 -5 -7 -7 -8 -12 -18 -22 -24 -26 -27 -26 -24 -25 -25 -26 -28 -28 -24 -23 -23 -22 -23 -23 -23 -23 -24 -26 -26 -26 -27 -25 -20 -16 -13 -13 -10 -9 -8
-1 -4 -6 -8 -10 -11 -12 -13 -16 -12 -7 -6 -8 -10 -11 -12 -20 -22 -20 -19 -20 -23 -23 -22 -20 -20 -20 -21 -22 -23 -26 -27 -24 -24 -26 -26 -22 -17 -14 -13 -12 -10 -8
-4 -6 -7 -7 -7 -7 -11 -9 -7 -7 -8 -9 -9 -10 -13 -16 -15 -14 -14 -15 -20 -20 -19 -19 -19 -19 -19 -21 -23 -26 -27 -25 -24 -24 -24 -25 -24 -19 -15 -13 -13 -11 -10
-5 -5 -6 -7 -8 -8 -7 -7 -8 -9 -10 -11 -13 -12 -13 -13 -13 -13 -15 -18 -19 -18 -17 -18 -18 -19 -21 -23 -26 -26 -25 -24 -24 -23 -23 -24 -25 -22 -16 -14 -13 -13 -10
-6 -7 -7 -7 -7 -8 -9 -9 -10 -11 -12 -12 -13 -13 -13 -13 -14 -15 -16 -18 -17 -17 -18 -18 -18 -19 -21 -23 -25 -24 -23 -22 -21 -21 -21 -21 -23 -23 -19 -15 -14 -13 -11
-7 -8 -8 -9 -9 -10 -11 -11 -12 -13 -13 -14 -14 -14 -14 -15 -15 -16 -16 -16 -17 -17 -18 -18 -19 -19 -22 -24 -23 -22 -21 -20 -20 -19 -20 -20 -21 -23 -20 -16 -14 -13 -12
-9 -9 -10 -10 -11 -11 -12 -13 -14 -14 -14 -15 -15 -15 -16 -16 -17 -17 -17 -17 -18 -18 -19 -19 -20 -21 -24 -23 -22 -20 -19 -19 -19 -19 -19 -19 -20 -20 -19 -17 -15 -14 -13
-11 -11 -12 -13 -13 -14 -14 -15 -15 -15 -16 -16 -16 -17 -17 -17 -18 -18 -19 -19 -19 -20 -20 -20 -22 -24 -24 -23 -21 -20 -20 -19 -19 -19 -19 -19 -19 -19 -18 -17 -15 -14 -13
-13 -13 -14 -14 -15 -16 -16 -16 -16 -17 -17 -17 -18 -18 -19 -19 -19 -20 -20 -21 -21 -21 -22 -23 -24 -25 -24 -22 -20 -20 -20 -20 -19 -19 -19 -19 -18 -18 -17 -16 -16 -15 -14
-15 -15 -16 -17 -18 -18 -18 -18 -18 -18 -19 -19 -19 -20 -20 -21 -21 -21 -22 -22 -22 -23 -23 -24 -25 -25 -23 -21 -20 -20 -20 -19 -19 -19 -19 -19 -18 -18 -17 -16 -16 -15 -14

GFSGL_850_dewp_063.txt.gz
Dewpoint
2 2 2 2 2 2 3 4 5 6 7 8 8 9 8 8 7 8 8 9 10 9 8 8 8 7 6 6 5 4 3 2 2 2 1 1 -0 -1 -1 -2 -2 -2 -2
6 6 5 4 4 4 5 6 7 8 9 9 6 8 9 10 9 9 9 9 9 9 9 8 7 6 5 5 4 2 2 2 0 -0 -0 0 -0 -2 -2 -2 -4 -4 -4
7 8 8 8 8 6 7 7 5 8 8 8 6 6 10 9 9 9 8 9 9 8 8 7 6 5 4 3 2 1 1 -0 -1 -1 -1 -2 -3 -3 -4 -4 -5 -5 -6
8 8 8 7 7 5 6 6 8 8 8 8 6 7 8 9 9 8 7 7 8 7 6 5 4 4 3 2 1 0 -1 -1 -4 -3 -3 -3 -5 -6 -5 -5 -5 -6 -6
8 9 9 8 8 8 8 8 8 9 9 7 8 7 8 9 9 8 7 8 7 6 6 4 3 2 1 1 0 -1 -2 -5 -6 -6 -6 -5 -6 -7 -6 -5 -5 -6 -7
8 8 8 9 9 9 9 9 9 10 10 9 10 8 9 8 8 8 8 7 6 5 4 3 2 1 0 -1 -1 -3 -5 -6 -6 -6 -7 -6 -5 -5 -7 -12 -18 -25 -26
8 8 8 9 9 9 9 10 10 9 10 9 10 9 9 8 8 7 6 5 4 3 2 1 0 -0 -1 -2 -4 -6 -8 -7 -7 -7 -8 -13 -25 -32 -27 -26 -21 -16 -15
8 9 9 9 9 10 10 10 10 9 9 9 9 8 8 7 6 5 4 3 2 1 0 -1 -1 -1 -4 -8 -9 -10 -11 -14 -22 -34 -36 -34 -30 -29 -26 -19 -15 -12 -12
9 9 10 9 10 10 10 10 9 10 9 8 7 7 6 5 4 3 2 1 -0 -0 -1 -1 -5 -8 -10 -13 -15 -25 -35 -38 -38 -38 -35 -36 -36 -34 -31 -27 -23 -12 -11
9 8 9 10 10 10 10 9 9 8 8 6 5 4 3 2 0 -0 -0 -0 -2 -6 -9 -10 -10 -11 -15 -28 -36 -37 -38 -38 -36 -37 -37 -36 -34 -33 -31 -25 -19 -18 -11
8 9 9 9 10 9 9 8 8 6 5 4 3 1 0 0 -0 -1 -3 -5 -7 -8 -9 -10 -16 -29 -36 -37 -38 -38 -34 -33 -32 -33 -33 -34 -33 -32 -30 -26 -18 -14 -13
10 10 9 9 8 8 7 6 5 4 3 1 1 0 -1 -2 -2 -2 -3 -5 -6 -7 -10 -22 -33 -36 -37 -37 -35 -30 -29 -31 -31 -33 -33 -34 -34 -33 -31 -29 -20 -15 -13
9 9 8 7 6 6 5 3 2 1 1 0 -0 -1 -2 -2 -2 -3 -5 -5 -6 -11 -23 -33 -36 -36 -34 -30 -25 -27 -31 -30 -32 -33 -33 -33 -32 -32 -30 -29 -22 -15 -14
8 7 6 5 4 3 2 2 1 0 0 -1 -1 -1 -2 -3 -4 -5 -5 -8 -13 -24 -33 -34 -32 -31 -30 -27 -26 -27 -29 -30 -30 -30 -31 -32 -32 -32 -30 -26 -20 -14 -13
6 5 3 3 2 2 1 1 0 -0 -0 -1 -2 -3 -4 -5 -6 -7 -10 -14 -26 -32 -32 -32 -30 -26 -24 -24 -26 -27 -27 -28 -29 -29 -31 -32 -33 -33 -32 -26 -16 -14 -11
3 3 3 2 2 1 1 -0 -1 -2 -2 -3 -3 -4 -5 -6 -8 -12 -18 -18 -19 -30 -29 -27 -24 -21 -22 -22 -24 -25 -26 -27 -28 -29 -30 -29 -29 -30 -31 -25 -16 -13 -12
3 2 2 2 1 0 -1 -2 -3 -5 -5 -6 -6 -6 -10 -16 -23 -19 -16 -23 -22 -23 -23 -20 -20 -20 -20 -21 -22 -23 -24 -25 -27 -29 -28 -27 -26 -26 -28 -24 -17 -13 -13
2 2 1 -0 -2 -3 -4 -5 -5 -5 -6 -10 -14 -11 -9 -8 -9 -9 -10 -12 -13 -16 -18 -19 -18 -19 -19 -20 -21 -22 -24 -26 -28 -27 -26 -25 -25 -24 -27 -25 -18 -14 -13
-0 -1 -2 -4 -5 -5 -6 -6 -7 -7 -7 -7 -8 -9 -9 -10 -11 -12 -12 -12 -13 -14 -17 -18 -17 -17 -19 -20 -21 -22 -25 -27 -27 -25 -24 -23 -23 -23 -24 -25 -20 -15 -14
-4 -4 -5 -5 -6 -6 -7 -7 -7 -7 -8 -9 -10 -11 -11 -12 -12 -13 -13 -14 -15 -15 -15 -15 -16 -17 -19 -20 -21 -23 -27 -27 -25 -24 -23 -22 -21 -21 -22 -24 -21 -16 -14
-6 -6 -7 -7 -7 -8 -8 -8 -9 -10 -10 -11 -12 -12 -13 -13 -13 -14 -14 -15 -15 -16 -16 -17 -17 -18 -19 -20 -21 -25 -27 -25 -23 -21 -20 -20 -20 -20 -21 -22 -20 -17 -15
-7 -8 -8 -8 -9 -10 -10 -11 -11 -12 -12 -13 -13 -14 -14 -14 -15 -15 -16 -16 -17 -17 -17 -18 -18 -19 -19 -20 -22 -26 -25 -23 -21 -20 -20 -20 -19 -19 -19 -20 -19 -17 -15
-9 -10 -10 -11 -11 -12 -12 -13 -13 -14 -14 -15 -15 -15 -16 -16 -17 -17 -17 -18 -18 -19 -19 -19 -20 -20 -21 -22 -24 -24 -23 -21 -20 -20 -20 -19 -19 -19 -19 -19 -18 -17 -16
-11 -11 -12 -12 -13 -13 -14 -15 -15 -15 -16 -16 -17 -17 -17 -18 -18 -19 -19 -20 -20 -21 -21 -22 -22 -22 -23 -24 -25 -25 -22 -20 -20 -20 -20 -19 -19 -19 -19 -18 -18 -17 -16
-12 -13 -13 -14 -14 -15 -16 -16 -17 -18 -18 -18 -19 -19 -19 -20 -20 -21 -21 -22 -22 -23 -23 -23 -23 -23 -24 -25 -25 -22 -21 -20 -20 -20 -20 -20 -19 -19 -18 -18 -18 -17 -16
-15 -17 -19 -20 -21 -20 -20 -20 -20 -20 -20 -20 -20 -21 -21 -21 -22 -22 -22 -23 -23 -23 -24 -24 -25 -25 -25 -25 -23 -21 -20 -20 -20 -20 -20 -20 -20 -19 -19 -18 -17 -17 -16

GFSGL_850_dewp_066.txt.gz
Dewpoint
-0 0 1 1 2 3 3 3 3 2 2 1 1 1 2 8 8 8 7 8 7 7 8 8 9 8 8 8 7 6 6 5 4 3 3 2 2 0 -0 -0 -1 -2 -2
2 2 1 1 -0 -1 -1 -1 -0 0 1 2 3 7 8 8 8 9 9 8 7 8 9 9 9 8 8 7 6 5 5 4 3 2 1 1 0 -2 -2 -2 -3 -3 -4
6 4 3 3 2 1 2 4 5 4 5 4 5 6 8 9 7 7 8 9 9 8 7 8 8 8 7 6 5 5 4 3 2 1 -0 -1 -2 -6 -6 -7 -7 -8 -8
7 7 5 4 4 4 4 5 5 5 6 7 7 7 7 8 8 6 8 9 8 7 8 8 8 6 6 5 4 3 2 2 1 -0 -1 -4 -7 -10 -10 -12 -17 -22 -25
7 7 7 7 6 6 5 6 7 5 6 7 7 6 8 9 6 6 8 9 8 8 8 7 6 5 5 4 3 2 1 0 -0 -4 -6 -7 -9 -10 -11 -15 -22 -35 -38
5 3 7 8 8 8 7 7 7 8 6 7 7 9 9 9 9 7 8 8 8 7 7 6 5 4 3 2 1 1 -0 -1 -4 -7 -8 -9 -11 -17 -32 -37 -38 -36 -34
3 5 7 8 8 9 9 9 8 9 9 9 9 10 9 9 9 9 9 7 7 6 5 5 4 3 1 1 -0 -1 -2 -6 -8 -9 -11 -19 -34 -37 -38 -38 -39 -38 -36
5 6 7 8 8 9 9 9 10 10 9 9 9 9 9 9 8 8 8 6 5 5 4 3 2 1 0 -1 -1 -4 -7 -9 -13 -24 -36 -37 -37 -37 -37 -36 -36 -35 -34
5 6 6 7 8 9 9 9 9 9 9 8 8 8 8 7 7 7 6 5 4 3 2 1 0 -1 -1 -3 -7 -9 -14 -26 -36 -36 -37 -36 -37 -36 -35 -34 -33 -31 -34
3 6 7 8 9 9 9 9 8 8 8 8 8 7 7 6 5 4 4 3 2 1 0 -1 -1 -3 -7 -10 -14 -26 -36 -37 -37 -37 -37 -36 -36 -36 -35 -33 -32 -30 -27
7 8 9 10 10 9 9 9 8 8 8 7 6 5 4 3 2 1 1 1 -0 -1 -3 -6 -8 -9 -14 -25 -34 -37 -37 -38 -37 -36 -37 -36 -36 -36 -35 -34 -32 -30 -28
10 10 10 9 9 9 8 8 8 7 6 5 4 3 1 1 0 -0 -1 -2 -4 -6 -7 -7 -11 -21 -31 -36 -37 -37 -37 -35 -33 -34 -33 -34 -34 -34 -34 -34 -33 -31 -28
9 9 9 9 9 8 7 6 5 4 4 3 2 1 0 -0 -1 -2 -3 -4 -5 -6 -7 -11 -23 -33 -36 -35 -33 -34 -32 -29 -30 -32 -33 -32 -32 -33 -34 -35 -35 -33 -30
9 9 8 8 7 6 5 4 4 3 2 2 1 0 -1 -2 -2 -3 -3 -4 -6 -7 -13 -25 -34 -34 -32 -30 -28 -26 -27 -29 -30 -31 -31 -31 -31 -32 -33 -33 -34 -33 -32
8 7 7 6 5 4 3 2 2 1 1 0 0 -1 -1 -2 -3 -4 -5 -6 -9 -16 -27 -26 -24 -21 -23 -25 -21 -24 -27 -28 -28 -29 -29 -30 -31 -31 -32 -30 -29 -30 -26
7 6 6 5 4 3 2 2 1 0 0 -0 -1 -1 -2 -4 -4 -5 -6 -7 -18 -13 -13 -18 -23 -25 -17 -14 -23 -24 -25 -25 -26 -27 -28 -29 -30 -30 -30 -29 -27 -28 -27
5 4 4 3 3 2 2 1 1 -2 -3 -3 -4 -5 -5 -5 -6 -7 -12 -19 -12 -11 -11 -10 -11 -16 -21 -21 -21 -22 -21 -22 -24 -25 -28 -29 -28 -28 -27 -26 -26 -26 -27
3 3 2 1 1 -0 -2 -3 -3 -4 -4 -5 -6 -6 -8 -10 -12 -11 -9 -10 -11 -11 -12 -13 -15 -16 -15 -15 -15 -15 -16 -16 -18 -24 -28 -27 -26 -25 -24 -24 -24 -24 -25
0 -0 -1 -3 -3 -4 -5 -5 -5 -5 -6 -6 -7 -8 -9 -10 -11 -11 -12 -12 -12 -13 -13 -14 -14 -15 -15 -16 -16 -16 -17 -18 -23 -26 -26 -25 -23 -21 -22 -21 -22 -23 -24
-3 -4 -4 -5 -5 -6 -6 -6 -7 -8 -8 -9 -10 -10 -11 -12 -12 -12 -13 -13 -14 -15 -15 -16 -16 -16 -17 -17 -18 -18 -20 -21 -24 -25 -24 -22 -21 -20 -20 -20 -20 -21 -22
-6 -6 -6 -6 -7 -7 -8 -8 -9 -10 -10 -11 -12 -12 -13 -13 -13 -14 -15 -15 -16 -16 -17 -17 -17 -18 -18 -18 -19 -20 -20 -22 -25 -24 -21 -21 -20 -20 -20 -19 -19 -20 -19
-7 -8 -8 -8 -9 -9 -10 -10 -11 -11 -12 -12 -13 -14 -14 -14 -15 -16 -16 -17 -17 -17 -18 -18 -19 -19 -19 -20 -20 -21 -21 -24 -24 -23 -21 -20 -20 -20 -19 -19 -19 -19 -18
-9 -9 -10 -10 -11 -11 -11 -12 -12 -13 -14 -14 -15 -15 -16 -16 -17 -17 -18 -18 -19 -19 -20 -21 -21 -21 -22 -22 -22 -22 -23 -24 -24 -22 -21 -20 -20 -20 -19 -19 -19 -19 -18
-10 -11 -11 -12 -12 -13 -13 -14 -15 -15 -16 -16 -17 -18 -18 -19 -20 -20 -20 -21 -21 -22 -22 -23 -23 -23 -23 -23 -24 -24 -24 -24 -22 -21 -20 -20 -20 -20 -20 -19 -19 -19 -18
-12 -12 -13 -14 -15 -16 -18 -19 -20 -20 -20 -20 -20 -21 -21 -21 -21 -21 -22 -22 -23 -23 -23 -24 -24 -25 -25 -25 -25 -25 -24 -22 -21 -21 -21 -21 -20 -20 -20 -20 -19 -19 -18
-24 -24 -24 -23 -23 -23 -23 -23 -23 -23 -23 -23 -23 -23 -23 -23 -23 -23 -23 -24 -24 -24 -25 -25 -25 -25 -25 -25 -25 -25 -22 -21 -21 -21 -21 -21 -21 -20 -20 -20 -19 -19 -18